Wetterdaten: Dienstag, 05.02.2019
Datum Zeit Temp. Aussen Temp. o. S. +5cm Feuchte Auss Luftdruck Regen Sonnenschein Regendauer Solar Windben Empfang
05.02.2019 00:00 2,8 C 1,1 C 1,1 C 88 % 1022,8 hPa 0,0 l/m 0 min 2 min 0 W/m 25,7 km/h (4 Bft) 95,65 %
05.02.2019 00:02 2,8 C 1,1 C 1,1 C 88 % 1022,8 hPa 0,0 l/m 0 min 0 min 0 W/m 16,1 km/h (3 Bft) 97,56 %
05.02.2019 00:04 2,8 C 1,1 C 1,1 C 88 % 1022,8 hPa 0,0 l/m 0 min 0 min 0 W/m 19,3 km/h (3 Bft) 95,74 %
05.02.2019 00:07 2,7 C 1,1 C 1,1 C 89 % 1022,8 hPa 0,0 l/m 0 min 0 min 0 W/m 12,9 km/h (3 Bft) 94,29 %
05.02.2019 00:08 2,7 C 1,1 C 1,1 C 89 % 1022,8 hPa 0,0 l/m 0 min 0 min 0 W/m 12,9 km/h (3 Bft) 95,83 %
05.02.2019 00:10 2,7 C 1,1 C 1,1 C 89 % 1022,7 hPa 0,0 l/m 0 min 0 min 0 W/m 16,1 km/h (3 Bft) 97,87 %
05.02.2019 00:12 2,7 C 1,1 C 1,1 C 89 % 1022,7 hPa 0,0 l/m 0 min 0 min 0 W/m 12,9 km/h (3 Bft) 93,48 %
05.02.2019 00:14 2,7 C 1,1 C 1,1 C 89 % 1022,7 hPa 0,0 l/m 0 min 0 min 0 W/m 12,9 km/h (3 Bft) 95,74 %
05.02.2019 00:16 2,7 C 1,1 C 1,1 C 89 % 1022,7 hPa 0,0 l/m 0 min 0 min 0 W/m 12,9 km/h (3 Bft) 97,87 %
05.02.2019 00:18 2,7 C 1,1 C 1,1 C 89 % 1022,9 hPa 0,0 l/m 0 min 0 min 0 W/m 25,7 km/h (4 Bft) 95,74 %
05.02.2019 00:20 2,6 C 1,1 C 1,1 C 90 % 1022,9 hPa 0,0 l/m 0 min 0 min 0 W/m 16,1 km/h (3 Bft) 97,87 %
05.02.2019 00:22 2,6 C 1,1 C 1,1 C 90 % 1023,0 hPa 0,0 l/m 0 min 0 min 0 W/m 16,1 km/h (3 Bft) 95,74 %
05.02.2019 00:24 2,6 C 1,1 C 1,1 C 90 % 1022,9 hPa 0,0 l/m 0 min 0 min 0 W/m 9,7 km/h (2 Bft) 100,00 %
05.02.2019 00:26 2,6 C 1,1 C 1,1 C 90 % 1022,8 hPa 0,0 l/m 0 min 0 min 0 W/m 9,7 km/h (2 Bft) 100,00 %
05.02.2019 00:28 2,6 C 1,1 C 1,1 C 90 % 1022,8 hPa 0,0 l/m 0 min 0 min 0 W/m 12,9 km/h (3 Bft) 97,87 %
05.02.2019 00:30 2,6 C 1,1 C 1,1 C 90 % 1022,9 hPa 0,0 l/m 0 min 0 min 0 W/m 9,7 km/h (2 Bft) 100,00 %
05.02.2019 00:32 2,6 C 1,1 C 1,1 C 90 % 1022,8 hPa 0,0 l/m 0 min 0 min 0 W/m 12,9 km/h (3 Bft) 100,00 %
05.02.2019 00:34 2,6 C 1,7 C 1,1 C 91 % 1022,9 hPa 0,0 l/m 0 min 0 min 0 W/m 9,7 km/h (2 Bft) 100,00 %
05.02.2019 00:36 2,5 C 1,7 C 1,1 C 91 % 1022,9 hPa 0,0 l/m 0 min 0 min 0 W/m 12,9 km/h (3 Bft) 100,00 %
05.02.2019 00:38 2,5 C 1,7 C 1,1 C 91 % 1022,9 hPa 0,0 l/m 0 min 0 min 0 W/m 9,7 km/h (2 Bft) 100,00 %
05.02.2019 00:40 2,5 C 1,7 C 1,1 C 91 % 1022,9 hPa 0,0 l/m 0 min 0 min 0 W/m 12,9 km/h (3 Bft) 100,00 %
05.02.2019 00:42 2,5 C 1,7 C 1,1 C 91 % 1022,9 hPa 0,0 l/m 0 min 0 min 0 W/m 12,9 km/h (3 Bft) 100,00 %
05.02.2019 00:44 2,5 C 1,7 C 1,1 C 91 % 1023,0 hPa 0,0 l/m 0 min 0 min 0 W/m 16,1 km/h (3 Bft) 100,00 %
05.02.2019 00:46 2,5 C 1,7 C 1,1 C 91 % 1023,0 hPa 0,0 l/m 0 min 0 min 0 W/m 9,7 km/h (2 Bft) 100,00 %
05.02.2019 00:48 2,5 C 1,7 C 1,1 C 91 % 1023,0 hPa 0,0 l/m 0 min 0 min 0 W/m 6,4 km/h (2 Bft) 95,74 %
05.02.2019 00:50 2,5 C 1,7 C 1,1 C 91 % 1022,9 hPa 0,0 l/m 0 min 0 min 0 W/m 9,7 km/h (2 Bft) 100,00 %
05.02.2019 00:52 2,5 C 1,7 C 1,1 C 91 % 1022,9 hPa 0,0 l/m 0 min 0 min 0 W/m 9,7 km/h (2 Bft) 97,87 %
05.02.2019 00:54 2,5 C 1,7 C 1,1 C 91 % 1022,9 hPa 0,0 l/m 0 min 2 min 0 W/m 9,7 km/h (2 Bft) 97,83 %
05.02.2019 00:56 2,5 C 1,1 C 1,1 C 91 % 1022,9 hPa 0,0 l/m 0 min 2 min 0 W/m 9,7 km/h (2 Bft) 100,00 %
05.02.2019 00:58 2,5 C 1,7 C 1,1 C 91 % 1022,8 hPa 0,0 l/m 0 min 0 min 0 W/m 9,7 km/h (2 Bft) 100,00 %
05.02.2019 01:00 2,5 C 1,7 C 1,1 C 91 % 1022,8 hPa 0,0 l/m 0 min 0 min 0 W/m 6,4 km/h (2 Bft) 100,00 %
05.02.2019 01:02 2,5 C 1,7 C 1,1 C 91 % 1022,7 hPa 0,0 l/m 0 min 0 min 0 W/m 12,9 km/h (3 Bft) 100,00 %
05.02.2019 01:04 2,5 C 1,7 C 1,1 C 91 % 1022,8 hPa 0,0 l/m 0 min 0 min 0 W/m 9,7 km/h (2 Bft) 100,00 %
05.02.2019 01:06 2,5 C 1,7 C 1,1 C 91 % 1022,8 hPa 0,0 l/m 0 min 0 min 0 W/m 9,7 km/h (2 Bft) 97,83 %
05.02.2019 01:08 2,5 C 1,7 C 1,1 C 91 % 1022,8 hPa 0,0 l/m 0 min 0 min 0 W/m 9,7 km/h (2 Bft) 100,00 %
05.02.2019 01:10 2,5 C 1,7 C 1,1 C 91 % 1022,8 hPa 0,0 l/m 0 min 0 min 0 W/m 12,9 km/h (3 Bft) 97,87 %
05.02.2019 01:12 2,5 C 1,7 C 1,1 C 91 % 1022,8 hPa 0,0 l/m 0 min 0 min 0 W/m 9,7 km/h (2 Bft) 95,74 %
05.02.2019 01:14 2,6 C 1,7 C 1,1 C 91 % 1022,9 hPa 0,2 l/m 0 min 0 min 0 W/m 12,9 km/h (3 Bft) 97,87 %
05.02.2019 01:16 2,5 C 1,7 C 1,1 C 91 % 1022,9 hPa 0,0 l/m 0 min 0 min 0 W/m 6,4 km/h (2 Bft) 97,83 %
05.02.2019 01:18 2,6 C 1,7 C 1,1 C 91 % 1023,0 hPa 0,0 l/m 0 min 0 min 0 W/m 9,7 km/h (2 Bft) 97,87 %
05.02.2019 01:20 2,6 C 1,7 C 1,1 C 91 % 1022,9 hPa 0,0 l/m 0 min 0 min 0 W/m 9,7 km/h (2 Bft) 97,87 %
05.02.2019 01:22 2,6 C 1,7 C 1,1 C 91 % 1023,1 hPa 0,0 l/m 0 min 0 min 0 W/m 16,1 km/h (3 Bft) 97,87 %
05.02.2019 01:24 2,6 C 1,7 C 1,1 C 91 % 1023,1 hPa 0,0 l/m 0 min 0 min 0 W/m 12,9 km/h (3 Bft) 97,87 %
05.02.2019 01:26 2,6 C 1,7 C 1,1 C 91 % 1023,1 hPa 0,0 l/m 0 min 0 min 0 W/m 9,7 km/h (2 Bft) 95,74 %
05.02.2019 01:28 2,6 C 1,7 C 1,1 C 91 % 1023,0 hPa 0,0 l/m 0 min 0 min 0 W/m 6,4 km/h (2 Bft) 97,83 %
05.02.2019 01:30 2,6 C 1,7 C 1,1 C 91 % 1023,0 hPa 0,0 l/m 0 min 0 min 0 W/m 6,4 km/h (2 Bft) 95,74 %
05.02.2019 01:32 2,6 C 1,7 C 1,1 C 91 % 1023,1 hPa 0,0 l/m 0 min 0 min 0 W/m 6,4 km/h (2 Bft) 93,62 %
05.02.2019 01:34 2,6 C 1,7 C 1,1 C 91 % 1023,1 hPa 0,0 l/m 0 min 0 min 0 W/m 9,7 km/h (2 Bft) 97,87 %
05.02.2019 01:36 2,6 C 2,2 C 1,1 C 91 % 1023,1 hPa 0,0 l/m 0 min 0 min 0 W/m 9,7 km/h (2 Bft) 95,74 %
05.02.2019 01:38 2,6 C 2,2 C 1,1 C 91 % 1023,1 hPa 0,0 l/m 0 min 0 min 0 W/m 12,9 km/h (3 Bft) 97,87 %
05.02.2019 01:40 2,6 C 2,2 C 1,1 C 91 % 1023,0 hPa 0,0 l/m 0 min 0 min 0 W/m 9,7 km/h (2 Bft) 97,83 %
05.02.2019 01:42 2,7 C 2,2 C 1,1 C 91 % 1023,0 hPa 0,0 l/m 0 min 0 min 0 W/m 9,7 km/h (2 Bft) 97,87 %
05.02.2019 01:44 2,7 C 1,7 C 1,1 C 91 % 1023,0 hPa 0,0 l/m 0 min 0 min 0 W/m 3,2 km/h (1 Bft) 95,74 %
05.02.2019 01:46 2,7 C 1,7 C 1,1 C 91 % 1023,0 hPa 0,0 l/m 0 min 0 min 0 W/m 3,2 km/h (1 Bft) 97,87 %
05.02.2019 01:48 2,7 C 1,7 C 1,1 C 91 % 1023,0 hPa 0,0 l/m 0 min 0 min 0 W/m 9,7 km/h (2 Bft) 97,87 %
05.02.2019 01:50 2,7 C 1,7 C 1,1 C 91 % 1023,1 hPa 0,0 l/m 0 min 2 min 0 W/m 6,4 km/h (2 Bft) 95,74 %
05.02.2019 01:52 2,7 C 1,7 C 1,1 C 91 % 1023,1 hPa 0,0 l/m 0 min 0 min 0 W/m 3,2 km/h (1 Bft) 97,83 %
05.02.2019 01:54 2,7 C 1,7 C 1,1 C 91 % 1023,1 hPa 0,0 l/m 0 min 0 min 0 W/m 3,2 km/h (1 Bft) 93,62 %
05.02.2019 01:56 2,7 C 1,7 C 1,1 C 91 % 1023,1 hPa 0,0 l/m 0 min 0 min 0 W/m 6,4 km/h (2 Bft) 93,62 %
05.02.2019 01:58 2,7 C 1,7 C 1,1 C 91 % 1023,0 hPa 0,0 l/m 0 min 0 min 0 W/m 9,7 km/h (2 Bft) 97,87 %
05.02.2019 02:00 2,7 C 1,7 C 1,1 C 91 % 1023,1 hPa 0,0 l/m 0 min 0 min 0 W/m 3,2 km/h (1 Bft) 100,00 %
05.02.2019 02:02 2,7 C 1,7 C 1,1 C 91 % 1023,1 hPa 0,0 l/m 0 min 0 min 0 W/m 6,4 km/h (2 Bft) 95,74 %
05.02.2019 02:04 2,7 C 1,7 C 1,1 C 91 % 1023,2 hPa 0,0 l/m 0 min 0 min 0 W/m 12,9 km/h (3 Bft) 95,65 %
05.02.2019 02:06 2,7 C 1,7 C 1,1 C 91 % 1023,2 hPa 0,0 l/m 0 min 0 min 0 W/m 9,7 km/h (2 Bft) 95,74 %
05.02.2019 02:08 2,7 C 1,7 C 1,1 C 91 % 1023,1 hPa 0,0 l/m 0 min 0 min 0 W/m 16,1 km/h (3 Bft) 100,00 %
05.02.2019 02:10 2,7 C 1,7 C 1,1 C 91 % 1023,0 hPa 0,0 l/m 0 min 0 min 0 W/m 16,1 km/h (3 Bft) 95,74 %
05.02.2019 02:12 2,7 C 1,7 C 1,1 C 91 % 1023,0 hPa 0,0 l/m 0 min 0 min 0 W/m 6,4 km/h (2 Bft) 97,87 %
05.02.2019 02:14 2,8 C 1,7 C 1,1 C 91 % 1023,1 hPa 0,0 l/m 0 min 0 min 0 W/m 9,7 km/h (2 Bft) 97,87 %
05.02.2019 02:16 2,8 C 1,7 C 1,1 C 91 % 1023,1 hPa 0,0 l/m 0 min 0 min 0 W/m 3,2 km/h (1 Bft) 97,83 %
05.02.2019 02:18 2,8 C 1,7 C 1,1 C 91 % 1023,0 hPa 0,0 l/m 0 min 0 min 0 W/m 6,4 km/h (2 Bft) 95,74 %
05.02.2019 02:20 2,8 C 1,7 C 1,1 C 91 % 1023,1 hPa 0,0 l/m 0 min 0 min 0 W/m 9,7 km/h (2 Bft) 97,87 %
05.02.2019 02:22 2,8 C 1,7 C 1,1 C 91 % 1023,1 hPa 0,0 l/m 0 min 0 min 0 W/m 6,4 km/h (2 Bft) 97,87 %
05.02.2019 02:24 2,8 C 1,7 C 1,1 C 91 % 1023,1 hPa 0,0 l/m 0 min 0 min 0 W/m 9,7 km/h (2 Bft) 97,87 %
05.02.2019 02:26 2,8 C 1,7 C 1,1 C 91 % 1023,2 hPa 0,0 l/m 0 min 0 min 0 W/m 12,9 km/h (3 Bft) 95,65 %
05.02.2019 02:28 2,8 C 1,7 C 1,1 C 92 % 1023,2 hPa 0,0 l/m 0 min 0 min 0 W/m 12,9 km/h (3 Bft) 97,87 %
05.02.2019 02:30 2,8 C 1,7 C 1,1 C 92 % 1023,2 hPa 0,0 l/m 0 min 0 min 0 W/m 12,9 km/h (3 Bft) 97,87 %
05.02.2019 02:32 2,8 C 1,7 C 1,1 C 92 % 1023,2 hPa 0,0 l/m 0 min 2 min 0 W/m 9,7 km/h (2 Bft) 97,87 %
05.02.2019 02:34 2,8 C 1,7 C 1,1 C 92 % 1023,2 hPa 0,0 l/m 0 min 2 min 0 W/m 9,7 km/h (2 Bft) 97,87 %
05.02.2019 02:36 2,8 C 1,7 C 1,1 C 92 % 1023,2 hPa 0,0 l/m 0 min 2 min 0 W/m 9,7 km/h (2 Bft) 97,87 %
05.02.2019 02:38 2,8 C 1,7 C 1,1 C 92 % 1023,2 hPa 0,0 l/m 0 min 0 min 0 W/m 12,9 km/h (3 Bft) 95,74 %
05.02.2019 02:40 2,7 C 1,7 C 1,1 C 92 % 1023,3 hPa 0,0 l/m 0 min 2 min 0 W/m 16,1 km/h (3 Bft) 97,83 %
05.02.2019 02:42 2,7 C 1,7 C 1,1 C 92 % 1023,2 hPa 0,0 l/m 0 min 2 min 0 W/m 12,9 km/h (3 Bft) 97,87 %
05.02.2019 02:44 2,7 C 1,7 C 1,1 C 92 % 1023,3 hPa 0,0 l/m 0 min 2 min 0 W/m 9,7 km/h (2 Bft) 97,87 %
05.02.2019 02:46 2,7 C 1,7 C 1,1 C 92 % 1023,3 hPa 0,0 l/m 0 min 0 min 0 W/m 6,4 km/h (2 Bft) 97,87 %
05.02.2019 02:48 2,7 C 1,7 C 1,1 C 92 % 1023,4 hPa 0,2 l/m 0 min 0 min 0 W/m 6,4 km/h (2 Bft) 97,87 %
05.02.2019 02:50 2,7 C 1,7 C 1,1 C 92 % 1023,3 hPa 0,0 l/m 0 min 0 min 0 W/m 12,9 km/h (3 Bft) 97,87 %
05.02.2019 02:52 2,7 C 1,7 C 1,1 C 92 % 1023,3 hPa 0,0 l/m 0 min 0 min 0 W/m 6,4 km/h (2 Bft) 97,83 %
05.02.2019 02:54 2,7 C 1,7 C 1,1 C 92 % 1023,4 hPa 0,0 l/m 0 min 2 min 0 W/m 9,7 km/h (2 Bft) 100,00 %
05.02.2019 02:56 2,7 C 1,7 C 1,1 C 93 % 1023,4 hPa 0,0 l/m 0 min 2 min 0 W/m 6,4 km/h (2 Bft) 100,00 %
05.02.2019 02:58 2,7 C 1,7 C 1,1 C 93 % 1023,4 hPa 0,0 l/m 0 min 2 min 0 W/m 9,7 km/h (2 Bft) 100,00 %
05.02.2019 03:00 2,7 C 1,7 C 1,1 C 93 % 1023,4 hPa 0,0 l/m 0 min 0 min 0 W/m 6,4 km/h (2 Bft) 100,00 %
05.02.2019 03:02 2,7 C 1,7 C 1,1 C 93 % 1023,4 hPa 0,0 l/m 0 min 0 min 0 W/m 6,4 km/h (2 Bft) 100,00 %
05.02.2019 03:04 2,7 C 1,7 C 1,1 C 93 % 1023,5 hPa 0,0 l/m 0 min 0 min 0 W/m 6,4 km/h (2 Bft) 97,87 %
05.02.2019 03:06 2,7 C 1,7 C 1,1 C 93 % 1023,4 hPa 0,0 l/m 0 min 0 min 0 W/m 9,7 km/h (2 Bft) 97,87 %
05.02.2019 03:08 2,7 C 1,7 C 1,1 C 93 % 1023,4 hPa 0,0 l/m 0 min 0 min 0 W/m 6,4 km/h (2 Bft) 95,74 %
05.02.2019 03:10 2,7 C 1,7 C 1,1 C 93 % 1023,4 hPa 0,0 l/m 0 min 0 min 0 W/m 9,7 km/h (2 Bft) 97,87 %
05.02.2019 03:12 2,7 C 1,7 C 1,1 C 93 % 1023,4 hPa 0,0 l/m 0 min 2 min 0 W/m 12,9 km/h (3 Bft) 95,74 %
05.02.2019 03:14 2,6 C 1,7 C 1,1 C 93 % 1023,4 hPa 0,0 l/m 0 min 0 min 0 W/m 9,7 km/h (2 Bft) 97,83 %
05.02.2019 03:16 2,6 C 1,7 C 1,1 C 93 % 1023,3 hPa 0,0 l/m 0 min 0 min 0 W/m 6,4 km/h (2 Bft) 97,87 %
05.02.2019 03:18 2,6 C 1,7 C 1,1 C 93 % 1023,3 hPa 0,0 l/m 0 min 0 min 0 W/m 9,7 km/h (2 Bft) 100,00 %
05.02.2019 03:20 2,6 C 1,7 C 1,1 C 93 % 1023,3 hPa 0,0 l/m 0 min 0 min 0 W/m 16,1 km/h (3 Bft) 97,87 %
05.02.2019 03:22 2,6 C 1,7 C 1,1 C 93 % 1023,3 hPa 0,0 l/m 0 min 2 min 0 W/m 9,7 km/h (2 Bft) 97,87 %
05.02.2019 03:24 2,6 C 1,7 C 1,1 C 93 % 1023,3 hPa 0,0 l/m 0 min 0 min 0 W/m 12,9 km/h (3 Bft) 97,87 %
05.02.2019 03:26 2,6 C 1,7 C 1,1 C 93 % 1023,3 hPa 0,0 l/m 0 min 0 min 0 W/m 9,7 km/h (2 Bft) 97,83 %
05.02.2019 03:28 2,6 C 1,7 C 1,1 C 93 % 1023,3 hPa 0,0 l/m 0 min 0 min 0 W/m 9,7 km/h (2 Bft) 97,87 %
05.02.2019 03:30 2,6 C 1,7 C 1,1 C 94 % 1023,3 hPa 0,0 l/m 0 min 0 min 0 W/m 12,9 km/h (3 Bft) 97,87 %
05.02.2019 03:32 2,6 C 1,7 C 1,1 C 94 % 1023,3 hPa 0,0 l/m 0 min 0 min 0 W/m 6,4 km/h (2 Bft) 95,74 %
05.02.2019 03:34 2,6 C 1,7 C 1,1 C 94 % 1023,4 hPa 0,0 l/m 0 min 2 min 0 W/m 9,7 km/h (2 Bft) 93,62 %
05.02.2019 03:36 2,6 C 1,7 C 1,1 C 94 % 1023,3 hPa 0,0 l/m 0 min 2 min 0 W/m 9,7 km/h (2 Bft) 97,83 %
05.02.2019 03:38 2,6 C 1,7 C 1,1 C 94 % 1023,3 hPa 0,0 l/m 0 min 2 min 0 W/m 9,7 km/h (2 Bft) 97,87 %
05.02.2019 03:40 2,6 C 1,7 C 1,1 C 94 % 1023,4 hPa 0,0 l/m 0 min 2 min 0 W/m 16,1 km/h (3 Bft) 97,87 %
05.02.2019 03:42 2,6 C 1,7 C 1,1 C 94 % 1023,4 hPa 0,0 l/m 0 min 2 min 0 W/m 3,2 km/h (1 Bft) 95,74 %
05.02.2019 03:44 2,5 C 1,7 C 1,1 C 94 % 1023,4 hPa 0,0 l/m 0 min 0 min 0 W/m 6,4 km/h (2 Bft) 97,87 %
05.02.2019 03:46 2,5 C 1,7 C 1,1 C 94 % 1023,4 hPa 0,0 l/m 0 min 0 min 0 W/m 0,0 km/h (0 Bft) 97,87 %
05.02.2019 03:48 2,5 C 1,7 C 1,1 C 94 % 1023,3 hPa 0,0 l/m 0 min 0 min 0 W/m 3,2 km/h (1 Bft) 97,87 %
05.02.2019 03:50 2,5 C 1,7 C 1,1 C 94 % 1023,3 hPa 0,0 l/m 0 min 0 min 0 W/m 6,4 km/h (2 Bft) 97,83 %
05.02.2019 03:52 2,5 C 1,7 C 1,1 C 94 % 1023,3 hPa 0,0 l/m 0 min 0 min 0 W/m 9,7 km/h (2 Bft) 97,87 %
05.02.2019 03:54 2,5 C 1,7 C 1,1 C 94 % 1023,3 hPa 0,0 l/m 0 min 0 min 0 W/m 9,7 km/h (2 Bft) 97,87 %
05.02.2019 03:56 2,5 C 1,7 C 1,1 C 94 % 1023,4 hPa 0,0 l/m 0 min 0 min 0 W/m 9,7 km/h (2 Bft) 97,87 %
05.02.2019 03:58 2,5 C 1,7 C 1,1 C 94 % 1023,3 hPa 0,0 l/m 0 min 0 min 0 W/m 9,7 km/h (2 Bft) 97,87 %
05.02.2019 04:00 2,5 C 1,7 C 1,1 C 94 % 1023,4 hPa 0,0 l/m 0 min 0 min 0 W/m 9,7 km/h (2 Bft) 97,83 %
05.02.2019 04:02 2,5 C 1,7 C 1,1 C 94 % 1023,4 hPa 0,0 l/m 0 min 0 min 0 W/m 9,7 km/h (2 Bft) 93,75 %
05.02.2019 04:04 2,4 C 1,7 C 1,1 C 94 % 1023,4 hPa 0,0 l/m 0 min 0 min 0 W/m 6,4 km/h (2 Bft) 93,62 %
05.02.2019 04:06 2,4 C 1,7 C 1,1 C 94 % 1023,4 hPa 0,0 l/m 0 min 2 min 0 W/m 12,9 km/h (3 Bft) 95,74 %
05.02.2019 04:08 2,4 C 1,7 C 1,1 C 94 % 1023,3 hPa 0,0 l/m 0 min 2 min 0 W/m 6,4 km/h (2 Bft) 97,87 %
05.02.2019 04:10 2,4 C 1,7 C 1,1 C 94 % 1023,4 hPa 0,0 l/m 0 min 2 min 0 W/m 9,7 km/h (2 Bft) 97,87 %
05.02.2019 04:12 2,4 C 1,7 C 1,1 C 94 % 1023,4 hPa 0,2 l/m 0 min 0 min 0 W/m 16,1 km/h (3 Bft) 95,65 %
05.02.2019 04:14 2,4 C 1,7 C 1,1 C 94 % 1023,4 hPa 0,0 l/m 0 min 0 min 0 W/m 12,9 km/h (3 Bft) 97,87 %
05.02.2019 04:16 2,4 C 1,7 C 1,1 C 94 % 1023,4 hPa 0,0 l/m 0 min 0 min 0 W/m 6,4 km/h (2 Bft) 97,87 %
05.02.2019 04:18 2,4 C 1,7 C 1,1 C 94 % 1023,6 hPa 0,0 l/m 0 min 2 min 0 W/m 3,2 km/h (1 Bft) 97,87 %
05.02.2019 04:20 2,4 C 1,7 C 1,1 C 94 % 1023,5 hPa 0,0 l/m 0 min 2 min 0 W/m 6,4 km/h (2 Bft) 95,74 %
05.02.2019 04:22 2,4 C 1,7 C 1,1 C 94 % 1023,5 hPa 0,0 l/m 0 min 2 min 0 W/m 12,9 km/h (3 Bft) 95,74 %
05.02.2019 04:24 2,4 C 1,7 C 1,1 C 94 % 1023,5 hPa 0,0 l/m 0 min 2 min 0 W/m 6,4 km/h (2 Bft) 97,83 %
05.02.2019 04:26 2,4 C 1,7 C 1,1 C 94 % 1023,5 hPa 0,0 l/m 0 min 2 min 0 W/m 6,4 km/h (2 Bft) 95,74 %
05.02.2019 04:28 2,4 C 1,7 C 1,1 C 95 % 1023,4 hPa 0,0 l/m 0 min 0 min 0 W/m 12,9 km/h (3 Bft) 97,87 %
05.02.2019 04:30 2,4 C 1,7 C 1,1 C 95 % 1023,4 hPa 0,0 l/m 0 min 0 min 0 W/m 6,4 km/h (2 Bft) 93,62 %
05.02.2019 04:32 2,4 C 1,7 C 1,1 C 95 % 1023,5 hPa 0,0 l/m 0 min 0 min 0 W/m 9,7 km/h (2 Bft) 95,74 %
05.02.2019 04:34 2,4 C 1,7 C 1,1 C 95 % 1023,4 hPa 0,0 l/m 0 min 2 min 0 W/m 9,7 km/h (2 Bft) 97,87 %
05.02.2019 04:36 2,4 C 1,7 C 1,1 C 95 % 1023,4 hPa 0,0 l/m 0 min 2 min 0 W/m 3,2 km/h (1 Bft) 95,65 %
05.02.2019 04:38 2,4 C 1,7 C 1,1 C 95 % 1023,4 hPa 0,0 l/m 0 min 0 min 0 W/m 9,7 km/h (2 Bft) 95,74 %
05.02.2019 04:40 2,4 C 1,7 C 1,1 C 95 % 1023,5 hPa 0,0 l/m 0 min 0 min 0 W/m 9,7 km/h (2 Bft) 95,74 %
05.02.2019 04:42 2,4 C 1,7 C 1,1 C 95 % 1023,5 hPa 0,0 l/m 0 min 0 min 0 W/m 12,9 km/h (3 Bft) 95,74 %
05.02.2019 04:44 2,4 C 1,7 C 1,1 C 95 % 1023,5 hPa 0,0 l/m 0 min 0 min 0 W/m 9,7 km/h (2 Bft) 95,74 %
05.02.2019 04:46 2,3 C 1,7 C 1,1 C 95 % 1023,6 hPa 0,0 l/m 0 min 0 min 0 W/m 12,9 km/h (3 Bft) 95,65 %
05.02.2019 04:48 2,4 C 1,7 C 1,1 C 95 % 1023,6 hPa 0,0 l/m 0 min 0 min 0 W/m 12,9 km/h (3 Bft) 95,74 %
05.02.2019 04:50 2,3 C 1,7 C 1,1 C 95 % 1023,6 hPa 0,0 l/m 0 min 0 min 0 W/m 6,4 km/h (2 Bft) 97,87 %
05.02.2019 04:52 2,3 C 1,7 C 1,1 C 95 % 1023,6 hPa 0,0 l/m 0 min 0 min 0 W/m 6,4 km/h (2 Bft) 97,87 %
05.02.2019 04:54 2,3 C 1,7 C 1,1 C 95 % 1023,7 hPa 0,0 l/m 0 min 2 min 0 W/m 9,7 km/h (2 Bft) 97,87 %
05.02.2019 04:56 2,3 C 1,7 C 1,1 C 95 % 1023,8 hPa 0,0 l/m 0 min 0 min 0 W/m 12,9 km/h (3 Bft) 95,74 %
05.02.2019 04:58 2,3 C 1,7 C 1,1 C 95 % 1023,7 hPa 0,0 l/m 0 min 0 min 0 W/m 16,1 km/h (3 Bft) 95,65 %
05.02.2019 05:00 2,3 C 1,7 C 1,1 C 95 % 1023,7 hPa 0,0 l/m 0 min 0 min 0 W/m 6,4 km/h (2 Bft) 97,87 %
05.02.2019 05:02 2,3 C 1,7 C 1,1 C 95 % 1023,7 hPa 0,0 l/m 0 min 0 min 0 W/m 6,4 km/h (2 Bft) 97,87 %
05.02.2019 05:04 2,3 C 1,7 C 1,1 C 95 % 1023,7 hPa 0,0 l/m 0 min 0 min 0 W/m 16,1 km/h (3 Bft) 97,87 %
05.02.2019 05:05 2,3 C 1,7 C 1,1 C 95 % 1023,7 hPa 0,0 l/m 0 min 0 min 0 W/m 16,1 km/h (3 Bft) 100,00 %
05.02.2019 05:15 2,3 C 1,7 C 1,1 C 95 % 1023,6 hPa 0,0 l/m 0 min 0 min 0 W/m 12,9 km/h (3 Bft) 98,28 %
05.02.2019 05:16 2,3 C 1,7 C 1,1 C 95 % 1023,6 hPa 0,0 l/m 0 min 0 min 0 W/m 3,2 km/h (1 Bft) 100,00 %
05.02.2019 05:18 2,3 C 1,7 C 1,1 C 95 % 1023,5 hPa 0,0 l/m 0 min 0 min 0 W/m 6,4 km/h (2 Bft) 100,00 %
05.02.2019 05:20 2,3 C 1,7 C 1,1 C 95 % 1023,5 hPa 0,0 l/m 0 min 0 min 0 W/m 12,9 km/h (3 Bft) 100,00 %
05.02.2019 05:22 2,3 C 1,7 C 1,1 C 95 % 1023,5 hPa 0,0 l/m 0 min 0 min 0 W/m 12,9 km/h (3 Bft) 100,00 %
05.02.2019 05:24 2,3 C 1,7 C 1,1 C 95 % 1023,5 hPa 0,0 l/m 0 min 0 min 0 W/m 16,1 km/h (3 Bft) 95,74 %
05.02.2019 05:26 2,3 C 1,7 C 1,1 C 95 % 1023,4 hPa 0,0 l/m 0 min 0 min 0 W/m 9,7 km/h (2 Bft) 97,87 %
05.02.2019 05:28 2,3 C 1,7 C 1,1 C 95 % 1023,4 hPa 0,0 l/m 0 min 0 min 0 W/m 9,7 km/h (2 Bft) 97,87 %
05.02.2019 05:30 2,3 C 1,7 C 1,1 C 95 % 1023,5 hPa 0,0 l/m 0 min 0 min 0 W/m 9,7 km/h (2 Bft) 97,83 %
05.02.2019 05:32 2,3 C 1,7 C 1,1 C 95 % 1023,6 hPa 0,0 l/m 0 min 2 min 0 W/m 9,7 km/h (2 Bft) 100,00 %
05.02.2019 05:34 2,3 C 1,7 C 1,1 C 95 % 1023,6 hPa 0,0 l/m 0 min 2 min 0 W/m 9,7 km/h (2 Bft) 97,87 %
05.02.2019 05:36 2,3 C 1,7 C 1,1 C 95 % 1023,7 hPa 0,0 l/m 0 min 0 min 0 W/m 9,7 km/h (2 Bft) 97,87 %
05.02.2019 05:38 2,3 C 1,7 C 1,1 C 95 % 1023,7 hPa 0,0 l/m 0 min 0 min 0 W/m 9,7 km/h (2 Bft) 100,00 %
05.02.2019 05:40 2,3 C 1,7 C 1,1 C 95 % 1023,7 hPa 0,0 l/m 0 min 0 min 0 W/m 9,7 km/h (2 Bft) 100,00 %
05.02.2019 05:42 2,3 C 1,7 C 1,1 C 95 % 1023,7 hPa 0,0 l/m 0 min 0 min 0 W/m 9,7 km/h (2 Bft) 100,00 %
05.02.2019 05:44 2,3 C 1,7 C 1,1 C 95 % 1023,7 hPa 0,0 l/m 0 min 0 min 0 W/m 9,7 km/h (2 Bft) 97,87 %
05.02.2019 05:46 2,3 C 1,7 C 1,1 C 95 % 1023,7 hPa 0,0 l/m 0 min 0 min 0 W/m 9,7 km/h (2 Bft) 100,00 %
05.02.2019 05:48 2,3 C 1,7 C 1,1 C 95 % 1023,7 hPa 0,0 l/m 0 min 0 min 0 W/m 9,7 km/h (2 Bft) 100,00 %
05.02.2019 05:50 2,3 C 1,7 C 1,1 C 95 % 1023,8 hPa 0,0 l/m 0 min 0 min 0 W/m 9,7 km/h (2 Bft) 100,00 %
05.02.2019 05:52 2,3 C 1,7 C 1,1 C 95 % 1023,8 hPa 0,0 l/m 0 min 0 min 0 W/m 6,4 km/h (2 Bft) 97,87 %
05.02.2019 05:54 2,3 C 1,7 C 1,1 C 95 % 1023,9 hPa 0,0 l/m 0 min 0 min 0 W/m 3,2 km/h (1 Bft) 97,83 %
05.02.2019 05:56 2,3 C 1,7 C 1,1 C 95 % 1023,8 hPa 0,0 l/m 0 min 0 min 0 W/m 6,4 km/h (2 Bft) 100,00 %
05.02.2019 05:58 2,3 C 1,7 C 1,1 C 95 % 1023,8 hPa 0,0 l/m 0 min 0 min 0 W/m 19,3 km/h (3 Bft) 100,00 %
05.02.2019 06:00 2,3 C 1,7 C 1,1 C 95 % 1023,8 hPa 0,0 l/m 0 min 0 min 0 W/m 16,1 km/h (3 Bft) 100,00 %
05.02.2019 06:02 2,3 C 1,7 C 1,1 C 95 % 1023,9 hPa 0,0 l/m 0 min 0 min 0 W/m 6,4 km/h (2 Bft) 100,00 %
05.02.2019 06:04 2,3 C 1,7 C 1,1 C 95 % 1023,9 hPa 0,0 l/m 0 min 0 min 0 W/m 9,7 km/h (2 Bft) 97,83 %
05.02.2019 06:08 2,3 C 1,7 C 1,1 C 95 % 1023,9 hPa 0,0 l/m 0 min 0 min 0 W/m 6,4 km/h (2 Bft) 100,00 %
05.02.2019 06:10 2,3 C 1,7 C 1,1 C 95 % 1023,9 hPa 0,0 l/m 0 min 0 min 0 W/m 6,4 km/h (2 Bft) 100,00 %
05.02.2019 06:12 2,3 C 1,7 C 1,1 C 95 % 1023,9 hPa 0,0 l/m 0 min 0 min 0 W/m 9,7 km/h (2 Bft) 100,00 %
05.02.2019 06:14 2,3 C 1,7 C 1,1 C 95 % 1023,9 hPa 0,0 l/m 0 min 0 min 0 W/m 9,7 km/h (2 Bft) 100,00 %
05.02.2019 06:16 2,3 C 1,7 C 1,1 C 95 % 1023,9 hPa 0,0 l/m 0 min 0 min 0 W/m 12,9 km/h (3 Bft) 97,83 %
05.02.2019 06:18 2,3 C 1,7 C 1,1 C 95 % 1023,9 hPa 0,0 l/m 0 min 0 min 0 W/m 9,7 km/h (2 Bft) 100,00 %
05.02.2019 06:20 2,3 C 1,7 C 1,1 C 95 % 1023,9 hPa 0,0 l/m 0 min 0 min 0 W/m 9,7 km/h (2 Bft) 100,00 %
05.02.2019 06:22 2,3 C 1,7 C 1,1 C 95 % 1023,9 hPa 0,0 l/m 0 min 0 min 0 W/m 12,9 km/h (3 Bft) 100,00 %
05.02.2019 06:24 2,3 C 1,7 C 1,1 C 95 % 1023,9 hPa 0,0 l/m 0 min 0 min 0 W/m 9,7 km/h (2 Bft) 100,00 %
05.02.2019 06:26 2,3 C 1,7 C 1,1 C 95 % 1023,9 hPa 0,0 l/m 0 min 0 min 0 W/m 9,7 km/h (2 Bft) 100,00 %
05.02.2019 06:28 2,3 C 1,7 C 1,1 C 95 % 1023,9 hPa 0,0 l/m 0 min 0 min 0 W/m 6,4 km/h (2 Bft) 100,00 %
05.02.2019 06:30 2,3 C 1,7 C 1,1 C 95 % 1023,9 hPa 0,0 l/m 0 min 0 min 0 W/m 6,4 km/h (2 Bft) 100,00 %
05.02.2019 06:32 2,3 C 1,7 C 1,1 C 95 % 1023,9 hPa 0,0 l/m 0 min 0 min 0 W/m 9,7 km/h (2 Bft) 100,00 %
05.02.2019 06:34 2,3 C 1,7 C 1,1 C 95 % 1023,9 hPa 0,0 l/m 0 min 0 min 0 W/m 6,4 km/h (2 Bft) 100,00 %
05.02.2019 06:36 2,3 C 1,7 C 1,1 C 95 % 1024,0 hPa 0,0 l/m 0 min 0 min 0 W/m 6,4 km/h (2 Bft) 97,87 %
05.02.2019 06:38 2,3 C 1,7 C 1,1 C 95 % 1023,9 hPa 0,0 l/m 0 min 0 min 0 W/m 9,7 km/h (2 Bft) 97,87 %
05.02.2019 06:40 2,4 C 1,7 C 1,1 C 95 % 1024,0 hPa 0,0 l/m 0 min 0 min 0 W/m 3,2 km/h (1 Bft) 100,00 %
05.02.2019 06:42 2,4 C 1,7 C 1,1 C 95 % 1024,0 hPa 0,0 l/m 0 min 0 min 0 W/m 3,2 km/h (1 Bft) 100,00 %
05.02.2019 06:44 2,4 C 1,7 C 1,1 C 95 % 1024,0 hPa 0,0 l/m 0 min 0 min 0 W/m 9,7 km/h (2 Bft) 97,87 %
05.02.2019 06:46 2,4 C 1,7 C 1,1 C 95 % 1024,0 hPa 0,0 l/m 0 min 0 min 0 W/m 9,7 km/h (2 Bft) 97,87 %
05.02.2019 06:48 2,4 C 1,7 C 1,1 C 95 % 1024,1 hPa 0,0 l/m 0 min 0 min 0 W/m 6,4 km/h (2 Bft) 95,74 %
05.02.2019 06:50 2,4 C 1,7 C 1,1 C 95 % 1024,0 hPa 0,0 l/m 0 min 0 min 0 W/m 9,7 km/h (2 Bft) 95,65 %
05.02.2019 06:52 2,4 C 1,7 C 1,1 C 95 % 1024,0 hPa 0,0 l/m 0 min 0 min 0 W/m 6,4 km/h (2 Bft) 95,74 %
05.02.2019 06:54 2,4 C 1,7 C 1,1 C 95 % 1024,0 hPa 0,0 l/m 0 min 0 min 0 W/m 3,2 km/h (1 Bft) 95,74 %
05.02.2019 06:56 2,4 C 1,7 C 1,1 C 95 % 1024,0 hPa 0,0 l/m 0 min 0 min 0 W/m 6,4 km/h (2 Bft) 91,49 %
05.02.2019 06:58 2,4 C 1,7 C 1,1 C 95 % 1024,0 hPa 0,0 l/m 0 min 0 min 0 W/m 6,4 km/h (2 Bft) 93,62 %
05.02.2019 07:00 2,4 C 1,7 C 1,1 C 95 % 1024,1 hPa 0,0 l/m 0 min 0 min 0 W/m 6,4 km/h (2 Bft) 95,74 %
05.02.2019 07:02 2,4 C 1,7 C 1,1 C 95 % 1024,1 hPa 0,0 l/m 0 min 0 min 0 W/m 6,4 km/h (2 Bft) 95,65 %
05.02.2019 07:04 2,4 C 1,7 C 1,1 C 95 % 1024,1 hPa 0,0 l/m 0 min 0 min 0 W/m 3,2 km/h (1 Bft) 93,62 %
05.02.2019 07:06 2,4 C 1,7 C 1,1 C 95 % 1024,2 hPa 0,0 l/m 0 min 0 min 0 W/m 9,7 km/h (2 Bft) 95,74 %
05.02.2019 07:08 2,4 C 1,7 C 1,1 C 95 % 1024,1 hPa 0,0 l/m 0 min 0 min 0 W/m 9,7 km/h (2 Bft) 87,23 %
05.02.2019 07:10 2,4 C 1,7 C 1,1 C 95 % 1024,2 hPa 0,0 l/m 0 min 0 min 0 W/m 6,4 km/h (2 Bft) 93,62 %
05.02.2019 07:12 2,4 C 1,7 C 1,1 C 95 % 1024,1 hPa 0,0 l/m 0 min 0 min 0 W/m 6,4 km/h (2 Bft) 95,74 %
05.02.2019 07:14 2,4 C 1,7 C 1,1 C 95 % 1024,2 hPa 0,0 l/m 0 min 0 min 0 W/m 3,2 km/h (1 Bft) 93,48 %
05.02.2019 07:16 2,4 C 1,7 C 1,1 C 95 % 1024,1 hPa 0,0 l/m 0 min 0 min 0 W/m 6,4 km/h (2 Bft) 95,74 %
05.02.2019 07:18 2,4 C 1,7 C 1,1 C 95 % 1024,2 hPa 0,0 l/m 0 min 0 min 0 W/m 3,2 km/h (1 Bft) 93,62 %
05.02.2019 07:20 2,4 C 1,7 C 1,1 C 95 % 1024,2 hPa 0,0 l/m 0 min 0 min 0 W/m 3,2 km/h (1 Bft) 95,74 %
05.02.2019 07:22 2,4 C 1,7 C 1,1 C 95 % 1024,1 hPa 0,0 l/m 0 min 0 min 0 W/m 6,4 km/h (2 Bft) 93,62 %
05.02.2019 07:24 2,4 C 1,7 C 1,1 C 95 % 1024,2 hPa 0,0 l/m 0 min 0 min 0 W/m 16,1 km/h (3 Bft) 93,62 %
05.02.2019 07:26 2,4 C 1,7 C 1,1 C 95 % 1024,2 hPa 0,0 l/m 0 min 0 min 0 W/m 3,2 km/h (1 Bft) 91,30 %
05.02.2019 07:28 2,4 C 1,7 C 1,1 C 95 % 1024,1 hPa 0,0 l/m 0 min 0 min 0 W/m 3,2 km/h (1 Bft) 89,36 %
05.02.2019 07:30 2,4 C 1,7 C 1,1 C 95 % 1024,2 hPa 0,0 l/m 0 min 0 min 0 W/m 3,2 km/h (1 Bft) 89,36 %
05.02.2019 07:32 2,4 C 1,7 C 1,1 C 95 % 1024,3 hPa 0,0 l/m 0 min 0 min 0 W/m 9,7 km/h (2 Bft) 97,87 %
05.02.2019 07:34 2,4 C 1,7 C 1,1 C 95 % 1024,2 hPa 0,0 l/m 0 min 0 min 0 W/m 9,7 km/h (2 Bft) 95,74 %
05.02.2019 07:36 2,4 C 1,7 C 1,1 C 95 % 1024,2 hPa 0,0 l/m 0 min 0 min 0 W/m 6,4 km/h (2 Bft) 95,74 %
05.02.2019 07:38 2,4 C 1,7 C 1,1 C 95 % 1024,2 hPa 0,0 l/m 0 min 0 min 0 W/m 6,4 km/h (2 Bft) 95,65 %
05.02.2019 07:40 2,4 C 1,7 C 1,1 C 95 % 1024,2 hPa 0,0 l/m 0 min 0 min 0 W/m 9,7 km/h (2 Bft) 95,74 %
05.02.2019 07:42 2,4 C 1,7 C 1,1 C 95 % 1024,2 hPa 0,0 l/m 0 min 0 min 0 W/m 3,2 km/h (1 Bft) 95,74 %
05.02.2019 07:44 2,4 C 1,7 C 1,1 C 95 % 1024,3 hPa 0,0 l/m 0 min 0 min 0 W/m 3,2 km/h (1 Bft) 95,74 %
05.02.2019 07:46 2,4 C 1,7 C 1,1 C 95 % 1024,3 hPa 0,0 l/m 0 min 0 min 0 W/m 9,7 km/h (2 Bft) 95,74 %
05.02.2019 07:48 2,4 C 1,7 C 1,1 C 95 % 1024,4 hPa 0,0 l/m 0 min 0 min 0 W/m 6,4 km/h (2 Bft) 95,74 %
05.02.2019 07:50 2,4 C 1,7 C 1,1 C 95 % 1024,3 hPa 0,0 l/m 0 min 0 min 0 W/m 3,2 km/h (1 Bft) 95,65 %
05.02.2019 07:52 2,4 C 1,7 C 1,1 C 95 % 1024,4 hPa 0,0 l/m 0 min 0 min 0 W/m 9,7 km/h (2 Bft) 95,74 %
05.02.2019 07:54 2,4 C 1,7 C 1,1 C 95 % 1024,4 hPa 0,0 l/m 0 min 0 min 0 W/m 6,4 km/h (2 Bft) 95,74 %
05.02.2019 07:56 2,4 C 1,7 C 1,1 C 95 % 1024,4 hPa 0,0 l/m 0 min 0 min 0 W/m 6,4 km/h (2 Bft) 95,74 %
05.02.2019 07:58 2,4 C 1,7 C 1,1 C 95 % 1024,4 hPa 0,0 l/m 0 min 0 min 0 W/m 6,4 km/h (2 Bft) 93,62 %
05.02.2019 08:00 2,4 C 1,7 C 1,1 C 95 % 1024,4 hPa 0,0 l/m 0 min 0 min 0 W/m 6,4 km/h (2 Bft) 97,87 %
05.02.2019 08:02 2,4 C 1,7 C 1,1 C 95 % 1024,4 hPa 0,0 l/m 0 min 0 min 0 W/m 6,4 km/h (2 Bft) 93,48 %
05.02.2019 08:04 2,4 C 1,7 C 1,1 C 95 % 1024,5 hPa 0,0 l/m 0 min 0 min 0 W/m 3,2 km/h (1 Bft) 95,74 %
05.02.2019 08:06 2,4 C 1,7 C 1,1 C 95 % 1024,4 hPa 0,0 l/m 0 min 0 min 0 W/m 3,2 km/h (1 Bft) 97,87 %
05.02.2019 08:08 2,5 C 1,7 C 1,1 C 95 % 1024,4 hPa 0,0 l/m 0 min 0 min 0 W/m 3,2 km/h (1 Bft) 97,87 %
05.02.2019 08:10 2,5 C 1,7 C 1,1 C 95 % 1024,5 hPa 0,0 l/m 0 min 0 min 0 W/m 3,2 km/h (1 Bft) 100,00 %
05.02.2019 08:12 2,4 C 1,7 C 1,1 C 95 % 1024,5 hPa 0,0 l/m 0 min 0 min 0 W/m 6,4 km/h (2 Bft) 100,00 %
05.02.2019 08:14 2,5 C 1,7 C 1,1 C 95 % 1024,5 hPa 0,0 l/m 0 min 0 min 0 W/m 3,2 km/h (1 Bft) 95,74 %
05.02.2019 08:16 2,5 C 1,7 C 1,1 C 95 % 1024,6 hPa 0,0 l/m 0 min 0 min 0 W/m 3,2 km/h (1 Bft) 100,00 %
05.02.2019 08:18 2,4 C 1,7 C 1,1 C 95 % 1024,6 hPa 0,0 l/m 0 min 0 min 0 W/m 3,2 km/h (1 Bft) 97,87 %
05.02.2019 08:20 2,5 C 2,2 C 1,1 C 95 % 1024,6 hPa 0,0 l/m 0 min 0 min 0 W/m 6,4 km/h (2 Bft) 95,74 %
05.02.2019 08:22 2,5 C 2,2 C 1,1 C 95 % 1024,5 hPa 0,0 l/m 0 min 0 min 0 W/m 3,2 km/h (1 Bft) 97,87 %
05.02.2019 08:24 2,5 C 2,2 C 1,1 C 95 % 1024,6 hPa 0,0 l/m 0 min 0 min 5 W/m 6,4 km/h (2 Bft) 100,00 %
05.02.2019 08:26 2,5 C 2,2 C 1,1 C 95 % 1024,6 hPa 0,0 l/m 0 min 0 min 5 W/m 3,2 km/h (1 Bft) 100,00 %
05.02.2019 08:28 2,5 C 2,2 C 1,1 C 95 % 1024,6 hPa 0,0 l/m 0 min 0 min 5 W/m 3,2 km/h (1 Bft) 100,00 %
05.02.2019 08:30 2,5 C 2,2 C 1,1 C 95 % 1024,6 hPa 0,0 l/m 0 min 0 min 5 W/m 6,4 km/h (2 Bft) 100,00 %
05.02.2019 08:32 2,5 C 2,2 C 1,1 C 95 % 1024,7 hPa 0,0 l/m 0 min 0 min 6 W/m 6,4 km/h (2 Bft) 100,00 %
05.02.2019 08:34 2,5 C 2,2 C 1,1 C 95 % 1024,7 hPa 0,0 l/m 0 min 0 min 7 W/m 6,4 km/h (2 Bft) 100,00 %
05.02.2019 08:36 2,5 C 2,2 C 1,1 C 95 % 1024,7 hPa 0,0 l/m 0 min 0 min 8 W/m 6,4 km/h (2 Bft) 100,00 %
05.02.2019 08:38 2,5 C 2,2 C 1,1 C 95 % 1024,7 hPa 0,0 l/m 0 min 0 min 10 W/m 6,4 km/h (2 Bft) 100,00 %
05.02.2019 08:40 2,5 C 2,2 C 1,7 C 95 % 1024,7 hPa 0,0 l/m 0 min 0 min 11 W/m 6,4 km/h (2 Bft) 97,87 %
05.02.2019 08:42 2,5 C 2,2 C 1,7 C 95 % 1024,7 hPa 0,0 l/m 0 min 0 min 11 W/m 6,4 km/h (2 Bft) 100,00 %
05.02.2019 08:44 2,6 C 2,2 C 1,7 C 95 % 1024,7 hPa 0,0 l/m 0 min 0 min 11 W/m 6,4 km/h (2 Bft) 100,00 %
05.02.2019 08:46 2,6 C 2,2 C 1,7 C 95 % 1024,8 hPa 0,0 l/m 0 min 0 min 12 W/m 12,9 km/h (3 Bft) 100,00 %
05.02.2019 08:48 2,6 C 2,2 C 1,7 C 95 % 1024,8 hPa 0,0 l/m 0 min 0 min 12 W/m 6,4 km/h (2 Bft) 100,00 %
05.02.2019 08:50 2,6 C 2,2 C 1,7 C 95 % 1024,8 hPa 0,0 l/m 0 min 0 min 12 W/m 9,7 km/h (2 Bft) 100,00 %
05.02.2019 08:52 2,6 C 2,2 C 1,7 C 95 % 1024,9 hPa 0,0 l/m 0 min 0 min 11 W/m 0,0 km/h (0 Bft) 100,00 %
05.02.2019 08:54 2,6 C 2,2 C 1,7 C 95 % 1024,9 hPa 0,0 l/m 0 min 0 min 12 W/m 9,7 km/h (2 Bft) 100,00 %
05.02.2019 08:56 2,6 C 2,2 C 1,7 C 95 % 1025,0 hPa 0,0 l/m 0 min 0 min 14 W/m 6,4 km/h (2 Bft) 100,00 %
05.02.2019 08:58 2,6 C 2,2 C 1,7 C 95 % 1025,0 hPa 0,0 l/m 0 min 0 min 16 W/m 3,2 km/h (1 Bft) 100,00 %
05.02.2019 09:00 2,6 C 2,2 C 1,7 C 95 % 1025,0 hPa 0,0 l/m 0 min 0 min 18 W/m 9,7 km/h (2 Bft) 100,00 %
05.02.2019 09:02 2,6 C 2,2 C 1,7 C 95 % 1025,0 hPa 0,0 l/m 0 min 0 min 19 W/m 3,2 km/h (1 Bft) 100,00 %
05.02.2019 09:04 2,6 C 2,2 C 1,7 C 95 % 1025,0 hPa 0,0 l/m 0 min 0 min 19 W/m 3,2 km/h (1 Bft) 100,00 %
05.02.2019 09:06 2,6 C 2,2 C 1,7 C 95 % 1025,0 hPa 0,0 l/m 0 min 0 min 20 W/m 3,2 km/h (1 Bft) 100,00 %
05.02.2019 09:08 2,6 C 2,2 C 1,7 C 95 % 1025,0 hPa 0,0 l/m 0 min 0 min 23 W/m 6,4 km/h (2 Bft) 100,00 %
05.02.2019 09:10 2,6 C 2,2 C 1,7 C 95 % 1025,1 hPa 0,0 l/m 0 min 0 min 26 W/m 3,2 km/h (1 Bft) 100,00 %
05.02.2019 09:12 2,6 C 2,8 C 1,7 C 95 % 1025,1 hPa 0,0 l/m 0 min 0 min 25 W/m 6,4 km/h (2 Bft) 100,00 %
05.02.2019 09:14 2,7 C 2,8 C 1,7 C 95 % 1025,0 hPa 0,0 l/m 0 min 0 min 25 W/m 6,4 km/h (2 Bft) 100,00 %
05.02.2019 09:16 2,7 C 2,8 C 1,7 C 95 % 1025,1 hPa 0,0 l/m 0 min 0 min 27 W/m 3,2 km/h (1 Bft) 97,87 %
05.02.2019 09:18 2,7 C 2,8 C 1,7 C 95 % 1025,1 hPa 0,0 l/m 0 min 0 min 29 W/m 3,2 km/h (1 Bft) 100,00 %
05.02.2019 09:20 2,7 C 2,8 C 1,7 C 95 % 1025,2 hPa 0,0 l/m 0 min 0 min 30 W/m 6,4 km/h (2 Bft) 100,00 %
05.02.2019 09:22 2,7 C 2,8 C 1,7 C 95 % 1025,2 hPa 0,0 l/m 0 min 0 min 28 W/m 6,4 km/h (2 Bft) 100,00 %
05.02.2019 09:24 2,7 C 2,8 C 1,7 C 95 % 1025,2 hPa 0,0 l/m 0 min 0 min 31 W/m 6,4 km/h (2 Bft) 97,87 %
05.02.2019 09:26 2,7 C 2,8 C 1,7 C 95 % 1025,1 hPa 0,0 l/m 0 min 0 min 34 W/m 0,0 km/h (0 Bft) 100,00 %
05.02.2019 09:28 2,7 C 2,8 C 1,7 C 95 % 1025,2 hPa 0,0 l/m 0 min 0 min 32 W/m 3,2 km/h (1 Bft) 97,87 %
05.02.2019 09:30 2,7 C 2,8 C 1,7 C 95 % 1025,2 hPa 0,0 l/m 0 min 0 min 31 W/m 3,2 km/h (1 Bft) 95,74 %
05.02.2019 09:32 2,7 C 2,8 C 1,7 C 95 % 1025,2 hPa 0,0 l/m 0 min 0 min 33 W/m 9,7 km/h (2 Bft) 95,74 %
05.02.2019 09:34 2,8 C 2,8 C 1,7 C 95 % 1025,2 hPa 0,0 l/m 0 min 0 min 34 W/m 6,4 km/h (2 Bft) 97,83 %
05.02.2019 09:36 2,8 C 2,8 C 1,7 C 95 % 1025,2 hPa 0,0 l/m 0 min 0 min 33 W/m 3,2 km/h (1 Bft) 97,87 %
05.02.2019 09:38 2,8 C 2,8 C 1,7 C 95 % 1025,2 hPa 0,0 l/m 0 min 0 min 31 W/m 3,2 km/h (1 Bft) 97,87 %
05.02.2019 09:40 2,8 C 2,8 C 1,7 C 95 % 1025,2 hPa 0,0 l/m 0 min 0 min 32 W/m 6,4 km/h (2 Bft) 97,87 %
05.02.2019 09:42 2,8 C 2,8 C 1,7 C 95 % 1025,2 hPa 0,0 l/m 0 min 0 min 30 W/m 6,4 km/h (2 Bft) 97,87 %
05.02.2019 09:44 2,8 C 2,8 C 1,7 C 95 % 1025,3 hPa 0,0 l/m 0 min 0 min 30 W/m 9,7 km/h (2 Bft) 97,87 %
05.02.2019 09:46 2,8 C 2,8 C 1,7 C 95 % 1025,3 hPa 0,0 l/m 0 min 0 min 31 W/m 3,2 km/h (1 Bft) 95,65 %
05.02.2019 09:48 2,8 C 2,8 C 1,7 C 95 % 1025,3 hPa 0,0 l/m 0 min 0 min 33 W/m 9,7 km/h (2 Bft) 97,87 %
05.02.2019 09:50 2,8 C 2,8 C 1,7 C 95 % 1025,4 hPa 0,0 l/m 0 min 0 min 33 W/m 6,4 km/h (2 Bft) 93,62 %
05.02.2019 09:52 2,8 C 2,8 C 1,7 C 95 % 1025,4 hPa 0,0 l/m 0 min 0 min 32 W/m 3,2 km/h (1 Bft) 95,74 %
05.02.2019 09:54 2,9 C 2,8 C 1,7 C 95 % 1025,4 hPa 0,0 l/m 0 min 0 min 32 W/m 9,7 km/h (2 Bft) 95,74 %
05.02.2019 09:56 2,9 C 2,8 C 1,7 C 95 % 1025,5 hPa 0,0 l/m 0 min 0 min 33 W/m 16,1 km/h (3 Bft) 93,62 %
05.02.2019 09:58 2,9 C 2,8 C 1,7 C 95 % 1025,4 hPa 0,0 l/m 0 min 0 min 32 W/m 9,7 km/h (2 Bft) 97,83 %
05.02.2019 10:00 2,9 C 2,8 C 1,7 C 95 % 1025,4 hPa 0,0 l/m 0 min 0 min 35 W/m 3,2 km/h (1 Bft) 97,87 %
05.02.2019 10:02 2,9 C 2,8 C 1,7 C 95 % 1025,4 hPa 0,0 l/m 0 min 0 min 36 W/m 6,4 km/h (2 Bft) 95,74 %
05.02.2019 10:04 2,9 C 2,8 C 1,7 C 95 % 1025,4 hPa 0,0 l/m 0 min 0 min 35 W/m 9,7 km/h (2 Bft) 95,74 %
05.02.2019 10:06 2,9 C 2,8 C 1,7 C 95 % 1025,5 hPa 0,0 l/m 0 min 0 min 40 W/m 16,1 km/h (3 Bft) 93,62 %
05.02.2019 10:08 2,9 C 2,8 C 2,2 C 95 % 1025,4 hPa 0,0 l/m 0 min 0 min 45 W/m 9,7 km/h (2 Bft) 95,74 %
05.02.2019 10:10 2,9 C 2,8 C 2,2 C 95 % 1025,5 hPa 0,0 l/m 0 min 0 min 47 W/m 16,1 km/h (3 Bft) 97,83 %
05.02.2019 10:12 3,0 C 2,8 C 2,2 C 95 % 1025,5 hPa 0,0 l/m 0 min 0 min 47 W/m 6,4 km/h (2 Bft) 93,62 %
05.02.2019 10:14 3,0 C 2,8 C 2,2 C 95 % 1025,5 hPa 0,0 l/m 0 min 0 min 48 W/m 6,4 km/h (2 Bft) 95,74 %
05.02.2019 10:16 3,0 C 2,8 C 2,2 C 95 % 1025,5 hPa 0,0 l/m 0 min 0 min 43 W/m 6,4 km/h (2 Bft) 97,87 %
05.02.2019 10:18 3,0 C 3,3 C 2,2 C 95 % 1025,6 hPa 0,0 l/m 0 min 0 min 45 W/m 6,4 km/h (2 Bft) 95,74 %
05.02.2019 10:20 3,0 C 3,3 C 2,2 C 95 % 1025,6 hPa 0,0 l/m 0 min 0 min 49 W/m 6,4 km/h (2 Bft) 97,83 %
05.02.2019 10:22 3,1 C 3,3 C 2,2 C 95 % 1025,7 hPa 0,0 l/m 0 min 0 min 53 W/m 16,1 km/h (3 Bft) 97,87 %
05.02.2019 10:24 3,1 C 3,3 C 2,2 C 96 % 1025,6 hPa 0,0 l/m 0 min 0 min 53 W/m 6,4 km/h (2 Bft) 97,87 %
05.02.2019 10:26 3,1 C 3,3 C 2,2 C 96 % 1025,7 hPa 0,0 l/m 0 min 0 min 53 W/m 6,4 km/h (2 Bft) 95,74 %
05.02.2019 10:28 3,1 C 3,3 C 2,2 C 96 % 1025,7 hPa 0,0 l/m 0 min 0 min 52 W/m 9,7 km/h (2 Bft) 95,74 %
05.02.2019 10:30 3,1 C 3,3 C 2,2 C 96 % 1025,6 hPa 0,0 l/m 0 min 0 min 53 W/m 9,7 km/h (2 Bft) 93,62 %
05.02.2019 10:32 3,1 C 3,3 C 2,2 C 96 % 1025,6 hPa 0,0 l/m 0 min 0 min 56 W/m 6,4 km/h (2 Bft) 95,65 %
05.02.2019 10:34 3,2 C 3,3 C 2,2 C 96 % 1025,6 hPa 0,0 l/m 0 min 0 min 55 W/m 6,4 km/h (2 Bft) 93,62 %
05.02.2019 10:36 3,2 C 3,3 C 2,2 C 96 % 1025,5 hPa 0,0 l/m 0 min 0 min 63 W/m 9,7 km/h (2 Bft) 95,74 %
05.02.2019 10:38 3,2 C 3,3 C 2,2 C 96 % 1025,6 hPa 0,0 l/m 0 min 0 min 69 W/m 6,4 km/h (2 Bft) 95,83 %
05.02.2019 10:40 3,2 C 3,3 C 2,2 C 96 % 1025,6 hPa 0,0 l/m 0 min 0 min 78 W/m 9,7 km/h (2 Bft) 93,62 %
05.02.2019 10:42 3,2 C 3,3 C 2,2 C 96 % 1025,6 hPa 0,0 l/m 0 min 0 min 85 W/m 9,7 km/h (2 Bft) 91,49 %
05.02.2019 10:44 3,2 C 3,9 C 2,8 C 96 % 1025,7 hPa 0,0 l/m 0 min 0 min 90 W/m 3,2 km/h (1 Bft) 95,65 %
05.02.2019 10:46 3,3 C 3,9 C 2,8 C 95 % 1025,7 hPa 0,0 l/m 0 min 0 min 87 W/m 12,9 km/h (3 Bft) 95,74 %
05.02.2019 10:48 3,3 C 3,3 C 2,8 C 95 % 1025,8 hPa 0,0 l/m 0 min 0 min 89 W/m 12,9 km/h (3 Bft) 95,74 %
05.02.2019 10:50 3,3 C 3,9 C 2,8 C 95 % 1025,8 hPa 0,0 l/m 0 min 0 min 87 W/m 6,4 km/h (2 Bft) 95,74 %
05.02.2019 10:52 3,3 C 3,3 C 2,8 C 95 % 1025,7 hPa 0,0 l/m 0 min 0 min 83 W/m 16,1 km/h (3 Bft) 95,74 %
05.02.2019 10:54 3,4 C 3,9 C 2,8 C 95 % 1025,7 hPa 0,0 l/m 0 min 0 min 92 W/m 9,7 km/h (2 Bft) 95,74 %
05.02.2019 10:56 3,4 C 3,9 C 2,8 C 95 % 1025,7 hPa 0,0 l/m 0 min 0 min 76 W/m 6,4 km/h (2 Bft) 95,65 %
05.02.2019 10:58 3,4 C 3,9 C 2,8 C 95 % 1025,8 hPa 0,0 l/m 0 min 0 min 70 W/m 3,2 km/h (1 Bft) 97,87 %
05.02.2019 11:00 3,4 C 3,9 C 2,8 C 95 % 1025,8 hPa 0,0 l/m 0 min 0 min 74 W/m 6,4 km/h (2 Bft) 97,87 %
05.02.2019 11:02 3,4 C 3,9 C 2,8 C 95 % 1025,8 hPa 0,0 l/m 0 min 0 min 68 W/m 6,4 km/h (2 Bft) 97,87 %
05.02.2019 11:04 3,4 C 3,9 C 2,8 C 96 % 1025,9 hPa 0,0 l/m 0 min 0 min 59 W/m 9,7 km/h (2 Bft) 97,87 %
05.02.2019 11:06 3,5 C 3,3 C 2,8 C 96 % 1025,8 hPa 0,0 l/m 0 min 0 min 56 W/m 9,7 km/h (2 Bft) 97,87 %
05.02.2019 11:08 3,5 C 3,3 C 2,8 C 95 % 1025,9 hPa 0,0 l/m 0 min 0 min 58 W/m 9,7 km/h (2 Bft) 91,30 %
05.02.2019 11:10 3,5 C 3,9 C 2,8 C 95 % 1025,8 hPa 0,0 l/m 0 min 0 min 60 W/m 6,4 km/h (2 Bft) 95,74 %
05.02.2019 11:12 3,5 C 3,9 C 2,8 C 95 % 1025,9 hPa 0,0 l/m 0 min 0 min 57 W/m 6,4 km/h (2 Bft) 97,87 %
05.02.2019 11:14 3,6 C 3,9 C 2,8 C 95 % 1026,0 hPa 0,0 l/m 0 min 0 min 57 W/m 3,2 km/h (1 Bft) 97,87 %
05.02.2019 11:16 3,6 C 3,9 C 2,8 C 95 % 1026,0 hPa 0,0 l/m 0 min 0 min 60 W/m 3,2 km/h (1 Bft) 97,87 %
05.02.2019 11:18 3,6 C 3,9 C 2,8 C 95 % 1026,0 hPa 0,0 l/m 0 min 0 min 62 W/m 3,2 km/h (1 Bft) 97,83 %
05.02.2019 11:20 3,6 C 3,9 C 2,8 C 95 % 1026,0 hPa 0,0 l/m 0 min 0 min 62 W/m 3,2 km/h (1 Bft) 97,87 %
05.02.2019 11:22 3,6 C 3,9 C 2,8 C 95 % 1026,1 hPa 0,0 l/m 0 min 0 min 61 W/m 3,2 km/h (1 Bft) 100,00 %
05.02.2019 11:24 3,6 C 3,9 C 2,8 C 95 % 1026,1 hPa 0,0 l/m 0 min 0 min 65 W/m 3,2 km/h (1 Bft) 97,87 %
05.02.2019 11:26 3,7 C 3,9 C 2,8 C 95 % 1026,1 hPa 0,0 l/m 0 min 0 min 64 W/m 6,4 km/h (2 Bft) 100,00 %
05.02.2019 11:28 3,7 C 3,9 C 2,8 C 95 % 1026,1 hPa 0,0 l/m 0 min 0 min 63 W/m 6,4 km/h (2 Bft) 97,87 %
05.02.2019 11:30 3,7 C 3,9 C 2,8 C 95 % 1026,1 hPa 0,0 l/m 0 min 0 min 62 W/m 3,2 km/h (1 Bft) 100,00 %
05.02.2019 11:32 3,7 C 3,9 C 2,8 C 95 % 1026,1 hPa 0,0 l/m 0 min 0 min 63 W/m 3,2 km/h (1 Bft) 100,00 %
05.02.2019 11:34 3,7 C 3,9 C 2,8 C 95 % 1026,1 hPa 0,0 l/m 0 min 0 min 61 W/m 3,2 km/h (1 Bft) 100,00 %
05.02.2019 11:36 3,7 C 3,9 C 2,8 C 95 % 1026,1 hPa 0,0 l/m 0 min 0 min 62 W/m 3,2 km/h (1 Bft) 100,00 %
05.02.2019 11:38 3,7 C 3,9 C 2,8 C 95 % 1026,1 hPa 0,0 l/m 0 min 0 min 61 W/m 6,4 km/h (2 Bft) 97,87 %
05.02.2019 11:40 3,8 C 3,9 C 2,8 C 95 % 1026,1 hPa 0,0 l/m 0 min 0 min 61 W/m 6,4 km/h (2 Bft) 100,00 %
05.02.2019 11:42 3,8 C 3,9 C 2,8 C 95 % 1026,1 hPa 0,0 l/m 0 min 0 min 61 W/m 12,9 km/h (3 Bft) 100,00 %
05.02.2019 11:44 3,8 C 3,9 C 2,8 C 95 % 1026,0 hPa 0,0 l/m 0 min 0 min 68 W/m 6,4 km/h (2 Bft) 100,00 %
05.02.2019 11:46 3,8 C 3,9 C 2,8 C 95 % 1026,0 hPa 0,0 l/m 0 min 0 min 72 W/m 6,4 km/h (2 Bft) 100,00 %
05.02.2019 11:48 3,8 C 3,9 C 3,3 C 95 % 1026,1 hPa 0,0 l/m 0 min 0 min 70 W/m 0,0 km/h (0 Bft) 100,00 %
05.02.2019 11:50 3,8 C 3,9 C 2,8 C 95 % 1026,1 hPa 0,0 l/m 0 min 0 min 68 W/m 6,4 km/h (2 Bft) 97,87 %
05.02.2019 11:52 3,8 C 3,9 C 3,3 C 95 % 1026,0 hPa 0,0 l/m 0 min 0 min 64 W/m 6,4 km/h (2 Bft) 100,00 %
05.02.2019 11:54 3,8 C 3,9 C 2,8 C 95 % 1026,0 hPa 0,0 l/m 0 min 0 min 72 W/m 9,7 km/h (2 Bft) 100,00 %
05.02.2019 11:56 3,8 C 3,9 C 2,8 C 95 % 1026,0 hPa 0,0 l/m 0 min 0 min 78 W/m 6,4 km/h (2 Bft) 100,00 %
05.02.2019 11:58 3,8 C 3,9 C 2,8 C 95 % 1026,0 hPa 0,0 l/m 0 min 0 min 77 W/m 6,4 km/h (2 Bft) 100,00 %
05.02.2019 12:00 3,9 C 3,9 C 2,8 C 95 % 1026,0 hPa 0,0 l/m 0 min 0 min 81 W/m 6,4 km/h (2 Bft) 97,87 %
05.02.2019 12:02 3,9 C 3,9 C 3,3 C 95 % 1025,9 hPa 0,0 l/m 0 min 0 min 85 W/m 6,4 km/h (2 Bft) 95,74 %
05.02.2019 12:04 3,9 C 3,9 C 3,3 C 95 % 1025,9 hPa 0,0 l/m 0 min 0 min 92 W/m 3,2 km/h (1 Bft) 95,74 %
05.02.2019 12:07 3,9 C 3,9 C 3,3 C 95 % 1025,9 hPa 0,0 l/m 0 min 0 min 87 W/m 9,7 km/h (2 Bft) 97,14 %
05.02.2019 12:08 3,9 C 3,9 C 3,3 C 95 % 1025,9 hPa 0,0 l/m 0 min 0 min 88 W/m 9,7 km/h (2 Bft) 91,30 %
05.02.2019 12:10 3,9 C 3,9 C 3,3 C 95 % 1025,9 hPa 0,0 l/m 0 min 0 min 91 W/m 9,7 km/h (2 Bft) 97,87 %
05.02.2019 12:12 3,9 C 4,4 C 3,3 C 95 % 1025,9 hPa 0,0 l/m 0 min 0 min 106 W/m 16,1 km/h (3 Bft) 95,74 %
05.02.2019 12:14 4,0 C 4,4 C 3,9 C 95 % 1025,9 hPa 0,0 l/m 0 min 0 min 112 W/m 12,9 km/h (3 Bft) 97,87 %
05.02.2019 12:16 4,0 C 4,4 C 3,9 C 95 % 1025,9 hPa 0,0 l/m 0 min 0 min 116 W/m 16,1 km/h (3 Bft) 95,65 %
05.02.2019 12:18 4,0 C 4,4 C 3,9 C 95 % 1025,9 hPa 0,0 l/m 0 min 0 min 113 W/m 6,4 km/h (2 Bft) 97,87 %
05.02.2019 12:20 4,1 C 4,4 C 3,9 C 95 % 1025,9 hPa 0,0 l/m 0 min 0 min 110 W/m 3,2 km/h (1 Bft) 97,87 %
05.02.2019 12:22 4,1 C 4,4 C 3,9 C 95 % 1025,8 hPa 0,0 l/m 0 min 0 min 115 W/m 6,4 km/h (2 Bft) 97,87 %
05.02.2019 12:24 4,1 C 4,4 C 3,9 C 94 % 1025,9 hPa 0,0 l/m 0 min 0 min 106 W/m 9,7 km/h (2 Bft) 97,87 %
05.02.2019 12:26 4,1 C 4,4 C 3,9 C 94 % 1025,9 hPa 0,0 l/m 0 min 0 min 100 W/m 6,4 km/h (2 Bft) 93,62 %
05.02.2019 12:28 4,2 C 4,4 C 3,9 C 94 % 1025,8 hPa 0,0 l/m 0 min 0 min 97 W/m 9,7 km/h (2 Bft) 97,87 %
05.02.2019 12:30 4,2 C 4,4 C 3,9 C 94 % 1025,8 hPa 0,0 l/m 0 min 0 min 97 W/m 6,4 km/h (2 Bft) 97,83 %
05.02.2019 12:32 4,2 C 4,4 C 3,9 C 94 % 1025,8 hPa 0,0 l/m 0 min 0 min 93 W/m 3,2 km/h (1 Bft) 97,87 %
05.02.2019 12:34 4,2 C 4,4 C 3,9 C 94 % 1025,8 hPa 0,0 l/m 0 min 0 min 91 W/m 6,4 km/h (2 Bft) 97,87 %
05.02.2019 12:36 4,2 C 5,0 C 3,9 C 94 % 1025,7 hPa 0,0 l/m 0 min 0 min 91 W/m 3,2 km/h (1 Bft) 95,74 %
05.02.2019 12:38 4,3 C 4,4 C 3,9 C 94 % 1025,8 hPa 0,0 l/m 0 min 0 min 96 W/m 3,2 km/h (1 Bft) 95,74 %
05.02.2019 12:40 4,3 C 5,0 C 3,9 C 94 % 1025,8 hPa 0,0 l/m 0 min 0 min 90 W/m 0,0 km/h (0 Bft) 100,00 %
05.02.2019 12:42 4,3 C 5,0 C 3,9 C 94 % 1025,8 hPa 0,0 l/m 0 min 0 min 81 W/m 3,2 km/h (1 Bft) 97,83 %
05.02.2019 12:44 4,4 C 5,0 C 3,9 C 94 % 1025,8 hPa 0,0 l/m 0 min 0 min 78 W/m 6,4 km/h (2 Bft) 97,87 %
05.02.2019 12:46 4,4 C 5,0 C 3,9 C 94 % 1025,7 hPa 0,0 l/m 0 min 0 min 81 W/m 6,4 km/h (2 Bft) 97,87 %
05.02.2019 12:48 4,4 C 4,4 C 3,9 C 94 % 1025,7 hPa 0,0 l/m 0 min 0 min 77 W/m 6,4 km/h (2 Bft) 100,00 %
05.02.2019 12:50 4,4 C 4,4 C 3,9 C 94 % 1025,7 hPa 0,0 l/m 0 min 0 min 77 W/m 9,7 km/h (2 Bft) 97,87 %
05.02.2019 12:52 4,4 C 4,4 C 3,9 C 94 % 1025,8 hPa 0,0 l/m 0 min 0 min 81 W/m 6,4 km/h (2 Bft) 100,00 %
05.02.2019 12:54 4,4 C 4,4 C 3,9 C 94 % 1025,8 hPa 0,0 l/m 0 min 0 min 87 W/m 9,7 km/h (2 Bft) 100,00 %
05.02.2019 12:56 4,4 C 4,4 C 3,9 C 94 % 1025,8 hPa 0,0 l/m 0 min 0 min 82 W/m 9,7 km/h (2 Bft) 100,00 %
05.02.2019 12:58 4,5 C 4,4 C 3,9 C 94 % 1025,8 hPa 0,0 l/m 0 min 0 min 80 W/m 6,4 km/h (2 Bft) 97,87 %
05.02.2019 13:00 4,5 C 4,4 C 3,9 C 94 % 1025,8 hPa 0,0 l/m 0 min 0 min 72 W/m 3,2 km/h (1 Bft) 97,87 %
05.02.2019 13:02 4,5 C 4,4 C 3,9 C 94 % 1025,8 hPa 0,0 l/m 0 min 0 min 66 W/m 3,2 km/h (1 Bft) 100,00 %
05.02.2019 13:04 4,5 C 4,4 C 3,9 C 94 % 1025,8 hPa 0,0 l/m 0 min 0 min 68 W/m 9,7 km/h (2 Bft) 100,00 %
05.02.2019 13:06 4,5 C 4,4 C 3,9 C 94 % 1025,8 hPa 0,0 l/m 0 min 0 min 67 W/m 3,2 km/h (1 Bft) 100,00 %
05.02.2019 13:08 4,5 C 4,4 C 3,9 C 93 % 1025,9 hPa 0,0 l/m 0 min 0 min 64 W/m 6,4 km/h (2 Bft) 97,87 %
05.02.2019 13:10 4,6 C 4,4 C 3,9 C 93 % 1025,8 hPa 0,0 l/m 0 min 0 min 58 W/m 3,2 km/h (1 Bft) 97,87 %
05.02.2019 13:12 4,5 C 4,4 C 3,9 C 93 % 1025,9 hPa 0,0 l/m 0 min 0 min 56 W/m 3,2 km/h (1 Bft) 97,87 %
05.02.2019 13:14 4,6 C 4,4 C 3,9 C 93 % 1025,9 hPa 0,0 l/m 0 min 0 min 60 W/m 0,0 km/h (0 Bft) 100,00 %
05.02.2019 13:16 4,6 C 4,4 C 3,9 C 93 % 1025,9 hPa 0,0 l/m 0 min 0 min 60 W/m 6,4 km/h (2 Bft) 100,00 %
05.02.2019 13:18 4,6 C 4,4 C 3,9 C 93 % 1025,9 hPa 0,0 l/m 0 min 0 min 62 W/m 3,2 km/h (1 Bft) 97,87 %
05.02.2019 13:20 4,6 C 4,4 C 3,9 C 93 % 1025,9 hPa 0,0 l/m 0 min 0 min 66 W/m 3,2 km/h (1 Bft) 97,87 %
05.02.2019 13:22 4,6 C 4,4 C 3,9 C 93 % 1025,8 hPa 0,0 l/m 0 min 0 min 67 W/m 6,4 km/h (2 Bft) 97,87 %
05.02.2019 13:24 4,6 C 4,4 C 3,9 C 93 % 1025,8 hPa 0,0 l/m 0 min 0 min 69 W/m 3,2 km/h (1 Bft) 97,87 %
05.02.2019 13:26 4,6 C 4,4 C 3,9 C 93 % 1025,8 hPa 0,0 l/m 0 min 0 min 69 W/m 3,2 km/h (1 Bft) 97,87 %
05.02.2019 13:28 4,6 C 4,4 C 3,9 C 93 % 1025,8 hPa 0,0 l/m 0 min 0 min 69 W/m 9,7 km/h (2 Bft) 97,83 %
05.02.2019 13:30 4,6 C 4,4 C 3,9 C 93 % 1025,8 hPa 0,0 l/m 0 min 0 min 66 W/m 6,4 km/h (2 Bft) 95,74 %
05.02.2019 13:32 4,6 C 4,4 C 3,9 C 93 % 1025,8 hPa 0,0 l/m 0 min 0 min 60 W/m 3,2 km/h (1 Bft) 95,74 %
05.02.2019 13:34 4,6 C 4,4 C 3,9 C 93 % 1025,8 hPa 0,0 l/m 0 min 0 min 56 W/m 9,7 km/h (2 Bft) 95,74 %
05.02.2019 13:36 4,6 C 4,4 C 3,9 C 93 % 1025,8 hPa 0,0 l/m 0 min 0 min 48 W/m 6,4 km/h (2 Bft) 93,62 %
05.02.2019 13:38 4,6 C 4,4 C 3,9 C 93 % 1025,8 hPa 0,0 l/m 0 min 0 min 56 W/m 9,7 km/h (2 Bft) 95,74 %
05.02.2019 13:40 4,6 C 4,4 C 3,9 C 93 % 1025,8 hPa 0,0 l/m 0 min 0 min 66 W/m 6,4 km/h (2 Bft) 95,74 %
05.02.2019 13:42 4,6 C 4,4 C 3,9 C 93 % 1025,7 hPa 0,0 l/m 0 min 0 min 70 W/m 0,0 km/h (0 Bft) 95,74 %
05.02.2019 13:44 4,6 C 5,0 C 4,4 C 93 % 1025,7 hPa 0,0 l/m 0 min 0 min 75 W/m 0,0 km/h (0 Bft) 95,74 %
05.02.2019 13:46 4,6 C 5,0 C 4,4 C 93 % 1025,8 hPa 0,0 l/m 0 min 0 min 80 W/m 0,0 km/h (0 Bft) 95,74 %
05.02.2019 13:48 4,7 C 5,0 C 4,4 C 93 % 1025,8 hPa 0,0 l/m 0 min 0 min 82 W/m 0,0 km/h (0 Bft) 95,74 %
05.02.2019 13:50 4,7 C 5,0 C 4,4 C 93 % 1025,7 hPa 0,0 l/m 0 min 0 min 84 W/m 0,0 km/h (0 Bft) 95,65 %
05.02.2019 13:52 4,7 C 5,0 C 4,4 C 93 % 1025,6 hPa 0,0 l/m 0 min 0 min 89 W/m 0,0 km/h (0 Bft) 95,74 %
05.02.2019 13:54 4,7 C 5,0 C 4,4 C 93 % 1025,7 hPa 0,0 l/m 0 min 0 min 93 W/m 0,0 km/h (0 Bft) 95,74 %
05.02.2019 13:56 4,7 C 5,0 C 4,4 C 93 % 1025,7 hPa 0,0 l/m 0 min 0 min 94 W/m 0,0 km/h (0 Bft) 95,74 %
05.02.2019 13:58 4,7 C 5,0 C 4,4 C 93 % 1025,6 hPa 0,0 l/m 0 min 0 min 97 W/m 0,0 km/h (0 Bft) 93,62 %
05.02.2019 14:00 4,7 C 5,0 C 4,4 C 93 % 1025,6 hPa 0,0 l/m 0 min 0 min 95 W/m 0,0 km/h (0 Bft) 93,62 %
05.02.2019 14:02 4,8 C 5,0 C 4,4 C 93 % 1025,6 hPa 0,0 l/m 0 min 0 min 84 W/m 0,0 km/h (0 Bft) 97,83 %
05.02.2019 14:04 4,8 C 5,0 C 4,4 C 93 % 1025,6 hPa 0,0 l/m 0 min 0 min 89 W/m 6,4 km/h (2 Bft) 93,62 %
05.02.2019 14:06 4,8 C 5,0 C 4,4 C 93 % 1025,5 hPa 0,0 l/m 0 min 0 min 88 W/m 0,0 km/h (0 Bft) 93,62 %
05.02.2019 14:08 4,8 C 5,0 C 4,4 C 93 % 1025,6 hPa 0,0 l/m 0 min 0 min 85 W/m 6,4 km/h (2 Bft) 93,62 %
05.02.2019 14:10 4,8 C 5,0 C 4,4 C 93 % 1025,6 hPa 0,0 l/m 0 min 0 min 86 W/m 3,2 km/h (1 Bft) 95,74 %
05.02.2019 14:12 4,9 C 5,0 C 4,4 C 93 % 1025,5 hPa 0,0 l/m 0 min 0 min 86 W/m 0,0 km/h (0 Bft) 93,62 %
05.02.2019 14:14 4,9 C 5,0 C 4,4 C 93 % 1025,6 hPa 0,0 l/m 0 min 0 min 88 W/m 6,4 km/h (2 Bft) 95,65 %
05.02.2019 14:16 4,9 C 5,0 C 4,4 C 93 % 1025,6 hPa 0,0 l/m 0 min 0 min 89 W/m 3,2 km/h (1 Bft) 95,74 %
05.02.2019 14:18 4,9 C 5,0 C 4,4 C 92 % 1025,5 hPa 0,0 l/m 0 min 0 min 86 W/m 3,2 km/h (1 Bft) 95,74 %
05.02.2019 14:20 4,9 C 5,0 C 4,4 C 92 % 1025,5 hPa 0,0 l/m 0 min 0 min 83 W/m 3,2 km/h (1 Bft) 97,87 %
05.02.2019 14:22 4,9 C 5,0 C 4,4 C 92 % 1025,5 hPa 0,0 l/m 0 min 0 min 84 W/m 0,0 km/h (0 Bft) 97,87 %
05.02.2019 14:24 4,9 C 5,0 C 4,4 C 92 % 1025,5 hPa 0,0 l/m 0 min 0 min 86 W/m 3,2 km/h (1 Bft) 97,87 %
05.02.2019 14:26 4,9 C 5,0 C 4,4 C 92 % 1025,5 hPa 0,0 l/m 0 min 0 min 86 W/m 3,2 km/h (1 Bft) 95,65 %
05.02.2019 14:28 4,9 C 5,6 C 4,4 C 92 % 1025,5 hPa 0,0 l/m 0 min 0 min 88 W/m 3,2 km/h (1 Bft) 97,87 %
05.02.2019 14:30 5,0 C 5,0 C 4,4 C 92 % 1025,5 hPa 0,0 l/m 0 min 0 min 92 W/m 3,2 km/h (1 Bft) 97,87 %
05.02.2019 14:32 5,0 C 5,0 C 4,4 C 92 % 1025,5 hPa 0,0 l/m 0 min 0 min 98 W/m 6,4 km/h (2 Bft) 97,87 %
05.02.2019 14:34 5,0 C 5,6 C 4,4 C 92 % 1025,5 hPa 0,0 l/m 0 min 0 min 99 W/m 0,0 km/h (0 Bft) 95,74 %
05.02.2019 14:36 5,0 C 5,6 C 4,4 C 92 % 1025,5 hPa 0,0 l/m 0 min 0 min 104 W/m 0,0 km/h (0 Bft) 97,83 %
05.02.2019 14:38 5,1 C 5,6 C 5,0 C 92 % 1025,4 hPa 0,0 l/m 0 min 0 min 105 W/m 0,0 km/h (0 Bft) 97,92 %
05.02.2019 14:40 5,1 C 5,6 C 5,0 C 92 % 1025,4 hPa 0,0 l/m 0 min 0 min 106 W/m 6,4 km/h (2 Bft) 97,87 %
05.02.2019 14:42 5,1 C 5,6 C 5,0 C 92 % 1025,4 hPa 0,0 l/m 0 min 0 min 109 W/m 0,0 km/h (0 Bft) 97,87 %
05.02.2019 14:44 5,1 C 5,6 C 5,0 C 92 % 1025,4 hPa 0,0 l/m 0 min 0 min 109 W/m 0,0 km/h (0 Bft) 95,65 %
05.02.2019 14:46 5,1 C 5,6 C 5,0 C 92 % 1025,5 hPa 0,0 l/m 0 min 0 min 113 W/m 3,2 km/h (1 Bft) 97,87 %
05.02.2019 14:48 5,2 C 5,6 C 5,0 C 92 % 1025,5 hPa 0,0 l/m 0 min 0 min 120 W/m 3,2 km/h (1 Bft) 97,87 %
05.02.2019 14:50 5,2 C 5,6 C 5,0 C 92 % 1025,5 hPa 0,0 l/m 0 min 0 min 117 W/m 3,2 km/h (1 Bft) 95,74 %
05.02.2019 14:52 5,2 C 5,6 C 5,0 C 92 % 1025,6 hPa 0,0 l/m 0 min 0 min 114 W/m 3,2 km/h (1 Bft) 97,87 %
05.02.2019 14:54 5,2 C 5,6 C 5,0 C 92 % 1025,6 hPa 0,0 l/m 0 min 0 min 108 W/m 3,2 km/h (1 Bft) 97,87 %
05.02.2019 14:56 5,2 C 5,6 C 5,0 C 91 % 1025,6 hPa 0,0 l/m 0 min 0 min 106 W/m 3,2 km/h (1 Bft) 97,83 %
05.02.2019 14:58 5,2 C 5,6 C 5,0 C 91 % 1025,6 hPa 0,0 l/m 0 min 0 min 106 W/m 3,2 km/h (1 Bft) 97,87 %
05.02.2019 15:00 5,2 C 5,6 C 5,0 C 92 % 1025,6 hPa 0,0 l/m 0 min 0 min 93 W/m 3,2 km/h (1 Bft) 95,74 %
05.02.2019 15:02 5,2 C 5,6 C 5,0 C 91 % 1025,7 hPa 0,0 l/m 0 min 0 min 86 W/m 3,2 km/h (1 Bft) 100,00 %
05.02.2019 15:04 5,3 C 5,6 C 5,0 C 91 % 1025,7 hPa 0,0 l/m 0 min 0 min 90 W/m 3,2 km/h (1 Bft) 97,87 %
05.02.2019 15:06 5,3 C 5,6 C 5,0 C 91 % 1025,6 hPa 0,0 l/m 0 min 0 min 84 W/m 9,7 km/h (2 Bft) 100,00 %
05.02.2019 15:08 5,3 C 5,6 C 5,0 C 91 % 1025,6 hPa 0,0 l/m 0 min 0 min 78 W/m 6,4 km/h (2 Bft) 97,87 %
05.02.2019 15:10 5,3 C 5,6 C 5,0 C 91 % 1025,6 hPa 0,0 l/m 0 min 0 min 80 W/m 3,2 km/h (1 Bft) 100,00 %
05.02.2019 15:12 5,3 C 5,6 C 5,0 C 91 % 1025,7 hPa 0,0 l/m 0 min 0 min 83 W/m 0,0 km/h (0 Bft) 100,00 %
05.02.2019 15:14 5,3 C 5,6 C 5,0 C 91 % 1025,7 hPa 0,0 l/m 0 min 0 min 80 W/m 9,7 km/h (2 Bft) 97,87 %
05.02.2019 15:16 5,3 C 5,6 C 5,0 C 91 % 1025,7 hPa 0,0 l/m 0 min 0 min 80 W/m 6,4 km/h (2 Bft) 100,00 %
05.02.2019 15:18 5,3 C 5,6 C 5,0 C 91 % 1025,7 hPa 0,0 l/m 0 min 0 min 85 W/m 6,4 km/h (2 Bft) 97,87 %
05.02.2019 15:20 5,3 C 5,6 C 5,0 C 91 % 1025,7 hPa 0,0 l/m 0 min 0 min 86 W/m 3,2 km/h (1 Bft) 100,00 %
05.02.2019 15:22 5,3 C 5,6 C 5,0 C 91 % 1025,7 hPa 0,0 l/m 0 min 0 min 84 W/m 6,4 km/h (2 Bft) 100,00 %
05.02.2019 15:24 5,3 C 5,6 C 5,0 C 91 % 1025,7 hPa 0,0 l/m 0 min 0 min 88 W/m 9,7 km/h (2 Bft) 95,74 %
05.02.2019 15:26 5,3 C 5,6 C 5,0 C 90 % 1025,7 hPa 0,0 l/m 0 min 0 min 90 W/m 3,2 km/h (1 Bft) 100,00 %
05.02.2019 15:28 5,4 C 5,6 C 5,0 C 90 % 1025,7 hPa 0,0 l/m 0 min 0 min 87 W/m 6,4 km/h (2 Bft) 100,00 %
05.02.2019 15:30 5,4 C 5,6 C 5,0 C 90 % 1025,7 hPa 0,0 l/m 0 min 0 min 92 W/m 6,4 km/h (2 Bft) 97,83 %
05.02.2019 15:32 5,4 C 5,6 C 5,0 C 90 % 1025,7 hPa 0,0 l/m 0 min 0 min 96 W/m 6,4 km/h (2 Bft) 100,00 %
05.02.2019 15:34 5,4 C 5,6 C 5,0 C 90 % 1025,8 hPa 0,0 l/m 0 min 0 min 93 W/m 0,0 km/h (0 Bft) 100,00 %
05.02.2019 15:36 5,4 C 5,6 C 5,0 C 90 % 1025,7 hPa 0,0 l/m 0 min 0 min 92 W/m 9,7 km/h (2 Bft) 95,74 %
05.02.2019 15:38 5,4 C 5,6 C 5,0 C 90 % 1025,7 hPa 0,0 l/m 0 min 0 min 96 W/m 6,4 km/h (2 Bft) 100,00 %
05.02.2019 15:40 5,4 C 5,6 C 5,0 C 90 % 1025,7 hPa 0,0 l/m 0 min 0 min 100 W/m 12,9 km/h (3 Bft) 100,00 %
05.02.2019 15:42 5,4 C 5,6 C 5,0 C 90 % 1025,7 hPa 0,0 l/m 0 min 0 min 110 W/m 9,7 km/h (2 Bft) 100,00 %
05.02.2019 15:44 5,4 C 5,6 C 5,0 C 90 % 1025,7 hPa 0,0 l/m 0 min 0 min 107 W/m 9,7 km/h (2 Bft) 97,87 %
05.02.2019 15:46 5,5 C 5,6 C 5,0 C 90 % 1025,6 hPa 0,0 l/m 0 min 0 min 101 W/m 3,2 km/h (1 Bft) 100,00 %
05.02.2019 15:48 5,5 C 5,6 C 5,0 C 90 % 1025,6 hPa 0,0 l/m 2 min 0 min 107 W/m 6,4 km/h (2 Bft) 100,00 %
05.02.2019 15:50 5,5 C 5,6 C 5,0 C 90 % 1025,5 hPa 0,0 l/m 0 min 0 min 104 W/m 6,4 km/h (2 Bft) 100,00 %
05.02.2019 15:52 5,5 C 5,6 C 5,0 C 90 % 1025,6 hPa 0,0 l/m 0 min 0 min 101 W/m 6,4 km/h (2 Bft) 100,00 %
05.02.2019 15:54 5,5 C 6,1 C 5,0 C 90 % 1025,6 hPa 0,0 l/m 0 min 0 min 99 W/m 0,0 km/h (0 Bft) 100,00 %
05.02.2019 15:56 5,5 C 6,1 C 5,0 C 90 % 1025,6 hPa 0,0 l/m 0 min 0 min 93 W/m 3,2 km/h (1 Bft) 100,00 %
05.02.2019 15:58 5,6 C 5,6 C 5,0 C 90 % 1025,6 hPa 0,0 l/m 0 min 0 min 89 W/m 6,4 km/h (2 Bft) 100,00 %
05.02.2019 16:00 5,6 C 6,1 C 5,0 C 90 % 1025,6 hPa 0,0 l/m 0 min 0 min 88 W/m 3,2 km/h (1 Bft) 97,87 %
05.02.2019 16:02 5,6 C 6,1 C 5,0 C 90 % 1025,5 hPa 0,0 l/m 2 min 0 min 94 W/m 9,7 km/h (2 Bft) 100,00 %
05.02.2019 16:04 5,6 C 5,6 C 5,0 C 90 % 1025,6 hPa 0,0 l/m 2 min 0 min 98 W/m 12,9 km/h (3 Bft) 100,00 %
05.02.2019 16:06 5,6 C 5,6 C 5,0 C 90 % 1025,6 hPa 0,0 l/m 2 min 0 min 111 W/m 9,7 km/h (2 Bft) 100,00 %
05.02.2019 16:08 5,6 C 5,6 C 5,0 C 89 % 1025,6 hPa 0,0 l/m 2 min 0 min 113 W/m 9,7 km/h (2 Bft) 100,00 %
05.02.2019 16:10 5,6 C 5,6 C 5,0 C 89 % 1025,6 hPa 0,0 l/m 2 min 0 min 98 W/m 9,7 km/h (2 Bft) 97,87 %
05.02.2019 16:12 5,6 C 5,6 C 5,0 C 89 % 1025,5 hPa 0,0 l/m 2 min 0 min 105 W/m 9,7 km/h (2 Bft) 100,00 %
05.02.2019 16:14 5,6 C 5,6 C 5,0 C 89 % 1025,5 hPa 0,0 l/m 2 min 0 min 97 W/m 12,9 km/h (3 Bft) 100,00 %
05.02.2019 16:16 5,6 C 5,6 C 5,0 C 89 % 1025,5 hPa 0,0 l/m 2 min 0 min 85 W/m 6,4 km/h (2 Bft) 100,00 %
05.02.2019 16:18 5,6 C 5,6 C 5,0 C 89 % 1025,5 hPa 0,0 l/m 0 min 0 min 76 W/m 12,9 km/h (3 Bft) 100,00 %
05.02.2019 16:20 5,6 C 5,6 C 4,4 C 89 % 1025,4 hPa 0,0 l/m 0 min 0 min 67 W/m 12,9 km/h (3 Bft) 100,00 %
05.02.2019 16:22 5,6 C 5,6 C 4,4 C 89 % 1025,4 hPa 0,0 l/m 0 min 0 min 69 W/m 9,7 km/h (2 Bft) 100,00 %
05.02.2019 16:24 5,6 C 5,6 C 4,4 C 89 % 1025,4 hPa 0,0 l/m 2 min 0 min 86 W/m 6,4 km/h (2 Bft) 100,00 %
05.02.2019 16:26 5,6 C 5,6 C 4,4 C 89 % 1025,4 hPa 0,0 l/m 2 min 0 min 82 W/m 6,4 km/h (2 Bft) 100,00 %
05.02.2019 16:28 5,6 C 5,6 C 4,4 C 89 % 1025,3 hPa 0,0 l/m 0 min 0 min 66 W/m 6,4 km/h (2 Bft) 97,87 %
05.02.2019 16:30 5,6 C 5,6 C 4,4 C 89 % 1025,3 hPa 0,0 l/m 0 min 0 min 58 W/m 6,4 km/h (2 Bft) 50,00 %
05.02.2019 16:32 5,6 C 5,6 C 4,4 C 89 % 1025,3 hPa 0,0 l/m 0 min 0 min 52 W/m 6,4 km/h (2 Bft) 97,78 %
05.02.2019 16:34 5,6 C 5,6 C 4,4 C 89 % 1025,3 hPa 0,0 l/m 0 min 0 min 52 W/m 9,7 km/h (2 Bft) 94,29 %
05.02.2019 16:36 5,6 C 5,6 C 4,4 C 89 % 1025,4 hPa 0,0 l/m 0 min 0 min 53 W/m 9,7 km/h (2 Bft) 96,61 %
05.02.2019 16:38 5,6 C 5,0 C 4,4 C 89 % 1025,4 hPa 0,0 l/m 0 min 0 min 48 W/m 6,4 km/h (2 Bft) 97,87 %
05.02.2019 16:40 5,6 C 5,0 C 4,4 C 89 % 1025,4 hPa 0,0 l/m 0 min 0 min 41 W/m 6,4 km/h (2 Bft) 97,83 %
05.02.2019 16:42 5,6 C 5,0 C 4,4 C 89 % 1025,5 hPa 0,0 l/m 0 min 0 min 35 W/m 9,7 km/h (2 Bft) 95,74 %
05.02.2019 16:44 5,5 C 5,0 C 4,4 C 89 % 1025,6 hPa 0,0 l/m 0 min 0 min 35 W/m 6,4 km/h (2 Bft) 95,74 %
05.02.2019 16:46 5,5 C 5,0 C 4,4 C 89 % 1025,5 hPa 0,0 l/m 0 min 0 min 34 W/m 6,4 km/h (2 Bft) 93,62 %
05.02.2019 16:48 5,5 C 5,0 C 4,4 C 89 % 1025,6 hPa 0,0 l/m 0 min 0 min 29 W/m 6,4 km/h (2 Bft) 93,62 %
05.02.2019 16:50 5,5 C 5,0 C 4,4 C 89 % 1025,5 hPa 0,0 l/m 0 min 0 min 26 W/m 6,4 km/h (2 Bft) 93,62 %
05.02.2019 16:52 5,5 C 5,0 C 4,4 C 89 % 1025,4 hPa 0,0 l/m 0 min 0 min 24 W/m 0,0 km/h (0 Bft) 93,48 %
05.02.2019 16:54 5,4 C 5,0 C 4,4 C 89 % 1025,4 hPa 0,0 l/m 0 min 0 min 19 W/m 9,7 km/h (2 Bft) 93,62 %
05.02.2019 16:56 5,4 C 5,0 C 3,9 C 89 % 1025,5 hPa 0,0 l/m 0 min 0 min 18 W/m 6,4 km/h (2 Bft) 93,62 %
05.02.2019 16:58 5,4 C 5,0 C 3,9 C 89 % 1025,5 hPa 0,0 l/m 0 min 0 min 18 W/m 3,2 km/h (1 Bft) 93,62 %
05.02.2019 17:00 5,4 C 5,0 C 3,9 C 89 % 1025,5 hPa 0,0 l/m 0 min 0 min 16 W/m 6,4 km/h (2 Bft) 95,74 %
05.02.2019 17:02 5,4 C 5,0 C 3,9 C 89 % 1025,5 hPa 0,0 l/m 0 min 0 min 18 W/m 9,7 km/h (2 Bft) 89,36 %
05.02.2019 17:04 5,4 C 4,4 C 3,9 C 89 % 1025,5 hPa 0,0 l/m 0 min 0 min 16 W/m 6,4 km/h (2 Bft) 93,48 %
05.02.2019 17:06 5,4 C 4,4 C 3,9 C 89 % 1025,4 hPa 0,0 l/m 0 min 0 min 16 W/m 6,4 km/h (2 Bft) 93,62 %
05.02.2019 17:08 5,4 C 4,4 C 3,9 C 89 % 1025,5 hPa 0,0 l/m 0 min 0 min 14 W/m 3,2 km/h (1 Bft) 91,49 %
05.02.2019 17:10 5,4 C 4,4 C 3,9 C 89 % 1025,5 hPa 0,0 l/m 0 min 0 min 12 W/m 3,2 km/h (1 Bft) 93,62 %
05.02.2019 17:12 5,3 C 4,4 C 3,9 C 89 % 1025,6 hPa 0,0 l/m 0 min 0 min 11 W/m 3,2 km/h (1 Bft) 93,62 %
05.02.2019 17:14 5,3 C 4,4 C 3,9 C 89 % 1025,4 hPa 0,0 l/m 0 min 0 min 11 W/m 6,4 km/h (2 Bft) 93,62 %
05.02.2019 17:16 5,3 C 4,4 C 3,9 C 89 % 1025,5 hPa 0,0 l/m 0 min 0 min 11 W/m 6,4 km/h (2 Bft) 91,43 %
05.02.2019 17:18 5,3 C 4,4 C 3,9 C 89 % 1025,5 hPa 0,0 l/m 0 min 0 min 9 W/m 3,2 km/h (1 Bft) 91,38 %
05.02.2019 17:20 5,3 C 4,4 C 3,9 C 89 % 1025,4 hPa 0,0 l/m 0 min 0 min 7 W/m 6,4 km/h (2 Bft) 89,36 %
05.02.2019 17:22 5,2 C 4,4 C 3,9 C 89 % 1025,4 hPa 0,0 l/m 0 min 0 min 7 W/m 6,4 km/h (2 Bft) 95,74 %
05.02.2019 17:24 5,2 C 4,4 C 3,9 C 89 % 1025,4 hPa 0,0 l/m 0 min 0 min 6 W/m 6,4 km/h (2 Bft) 95,74 %
05.02.2019 17:26 5,2 C 4,4 C 3,3 C 89 % 1025,4 hPa 0,0 l/m 0 min 0 min 5 W/m 6,4 km/h (2 Bft) 95,74 %
05.02.2019 17:28 5,2 C 4,4 C 3,3 C 89 % 1025,4 hPa 0,0 l/m 0 min 0 min 5 W/m 6,4 km/h (2 Bft) 94,29 %
05.02.2019 17:30 5,2 C 4,4 C 3,3 C 90 % 1025,4 hPa 0,0 l/m 0 min 0 min 5 W/m 6,4 km/h (2 Bft) 94,83 %
05.02.2019 17:32 5,1 C 4,4 C 3,3 C 90 % 1025,4 hPa 0,0 l/m 0 min 0 min 1 W/m 9,7 km/h (2 Bft) 95,74 %
05.02.2019 17:34 5,1 C 4,4 C 3,3 C 90 % 1025,5 hPa 0,0 l/m 0 min 0 min 0 W/m 9,7 km/h (2 Bft) 100,00 %
05.02.2019 17:36 5,1 C 4,4 C 3,3 C 89 % 1025,5 hPa 0,0 l/m 0 min 0 min 0 W/m 6,4 km/h (2 Bft) 100,00 %
05.02.2019 17:38 5,0 C 3,9 C 3,3 C 90 % 1025,5 hPa 0,0 l/m 0 min 0 min 0 W/m 3,2 km/h (1 Bft) 97,87 %
05.02.2019 17:40 5,0 C 3,9 C 3,3 C 90 % 1025,5 hPa 0,0 l/m 0 min 0 min 0 W/m 6,4 km/h (2 Bft) 100,00 %
05.02.2019 17:42 4,9 C 3,9 C 3,3 C 90 % 1025,5 hPa 0,0 l/m 0 min 0 min 0 W/m 3,2 km/h (1 Bft) 97,87 %
05.02.2019 17:44 4,9 C 3,9 C 3,3 C 90 % 1025,5 hPa 0,0 l/m 0 min 0 min 0 W/m 3,2 km/h (1 Bft) 100,00 %
05.02.2019 17:46 4,9 C 3,9 C 3,3 C 90 % 1025,5 hPa 0,0 l/m 0 min 0 min 0 W/m 3,2 km/h (1 Bft) 100,00 %
05.02.2019 17:48 4,9 C 3,9 C 3,3 C 90 % 1025,5 hPa 0,0 l/m 0 min 0 min 0 W/m 6,4 km/h (2 Bft) 100,00 %
05.02.2019 17:50 4,9 C 3,9 C 3,3 C 90 % 1025,5 hPa 0,0 l/m 0 min 0 min 0 W/m 6,4 km/h (2 Bft) 97,83 %
05.02.2019 17:52 4,8 C 3,9 C 3,3 C 90 % 1025,6 hPa 0,0 l/m 0 min 0 min 0 W/m 3,2 km/h (1 Bft) 100,00 %
05.02.2019 17:54 4,8 C 3,9 C 3,3 C 90 % 1025,6 hPa 0,0 l/m 0 min 0 min 0 W/m 6,4 km/h (2 Bft) 100,00 %
05.02.2019 17:56 4,8 C 3,9 C 3,3 C 90 % 1025,5 hPa 0,0 l/m 0 min 0 min 0 W/m 3,2 km/h (1 Bft) 97,87 %
05.02.2019 17:58 4,8 C 3,9 C 3,3 C 90 % 1025,6 hPa 0,0 l/m 0 min 0 min 0 W/m 3,2 km/h (1 Bft) 100,00 %
05.02.2019 18:00 4,8 C 3,9 C 3,3 C 90 % 1025,6 hPa 0,0 l/m 0 min 0 min 0 W/m 6,4 km/h (2 Bft) 100,00 %
05.02.2019 18:02 4,8 C 3,9 C 3,3 C 90 % 1025,6 hPa 0,0 l/m 0 min 0 min 0 W/m 3,2 km/h (1 Bft) 100,00 %
05.02.2019 18:04 4,8 C 3,9 C 3,3 C 90 % 1025,6 hPa 0,0 l/m 0 min 0 min 0 W/m 6,4 km/h (2 Bft) 100,00 %
05.02.2019 18:08 4,7 C 3,9 C 3,3 C 91 % 1025,6 hPa 0,0 l/m 0 min 0 min 0 W/m 6,4 km/h (2 Bft) 100,00 %
05.02.2019 18:10 4,7 C 3,9 C 3,3 C 91 % 1025,6 hPa 0,0 l/m 0 min 0 min 0 W/m 0,0 km/h (0 Bft) 100,00 %
05.02.2019 18:12 4,7 C 3,9 C 3,3 C 91 % 1025,6 hPa 0,0 l/m 0 min 0 min 0 W/m 3,2 km/h (1 Bft) 100,00 %
05.02.2019 18:14 4,7 C 3,9 C 3,3 C 91 % 1025,8 hPa 0,0 l/m 0 min 0 min 0 W/m 6,4 km/h (2 Bft) 100,00 %
05.02.2019 18:16 4,7 C 3,9 C 3,3 C 91 % 1025,7 hPa 0,0 l/m 0 min 0 min 0 W/m 3,2 km/h (1 Bft) 100,00 %
05.02.2019 18:18 4,7 C 3,9 C 3,3 C 91 % 1025,7 hPa 0,0 l/m 0 min 0 min 0 W/m 3,2 km/h (1 Bft) 100,00 %
05.02.2019 18:20 4,7 C 3,9 C 3,3 C 91 % 1025,7 hPa 0,0 l/m 0 min 0 min 0 W/m 3,2 km/h (1 Bft) 100,00 %
05.02.2019 18:22 4,7 C 3,9 C 3,3 C 91 % 1025,7 hPa 0,0 l/m 0 min 0 min 0 W/m 3,2 km/h (1 Bft) 100,00 %
05.02.2019 18:24 4,7 C 3,9 C 3,3 C 91 % 1025,7 hPa 0,0 l/m 0 min 0 min 0 W/m 6,4 km/h (2 Bft) 100,00 %
05.02.2019 18:26 4,7 C 3,9 C 3,3 C 91 % 1025,7 hPa 0,0 l/m 0 min 0 min 0 W/m 3,2 km/h (1 Bft) 100,00 %
05.02.2019 18:28 4,6 C 3,9 C 3,3 C 91 % 1025,6 hPa 0,0 l/m 0 min 0 min 0 W/m 6,4 km/h (2 Bft) 100,00 %
05.02.2019 18:30 4,6 C 3,9 C 3,3 C 91 % 1025,6 hPa 0,0 l/m 0 min 0 min 0 W/m 3,2 km/h (1 Bft) 100,00 %
05.02.2019 18:32 4,6 C 3,9 C 3,3 C 91 % 1025,6 hPa 0,0 l/m 0 min 0 min 0 W/m 3,2 km/h (1 Bft) 97,87 %
05.02.2019 18:34 4,6 C 3,9 C 3,3 C 91 % 1025,7 hPa 0,0 l/m 0 min 0 min 0 W/m 3,2 km/h (1 Bft) 100,00 %
05.02.2019 18:36 4,6 C 4,4 C 3,3 C 91 % 1025,6 hPa 0,0 l/m 0 min 0 min 0 W/m 6,4 km/h (2 Bft) 97,83 %
05.02.2019 18:38 4,6 C 4,4 C 3,3 C 91 % 1025,6 hPa 0,0 l/m 0 min 0 min 0 W/m 6,4 km/h (2 Bft) 100,00 %
05.02.2019 18:40 4,6 C 4,4 C 3,3 C 92 % 1025,6 hPa 0,0 l/m 0 min 0 min 0 W/m 3,2 km/h (1 Bft) 100,00 %
05.02.2019 18:42 4,6 C 4,4 C 3,3 C 92 % 1025,6 hPa 0,0 l/m 0 min 0 min 0 W/m 3,2 km/h (1 Bft) 100,00 %
05.02.2019 18:44 4,6 C 4,4 C 3,3 C 92 % 1025,6 hPa 0,0 l/m 0 min 0 min 0 W/m 3,2 km/h (1 Bft) 100,00 %
05.02.2019 18:46 4,6 C 4,4 C 3,3 C 92 % 1025,6 hPa 0,0 l/m 0 min 0 min 0 W/m 3,2 km/h (1 Bft) 100,00 %
05.02.2019 18:48 4,6 C 4,4 C 3,9 C 92 % 1025,5 hPa 0,0 l/m 0 min 0 min 0 W/m 3,2 km/h (1 Bft) 100,00 %
05.02.2019 18:50 4,7 C 4,4 C 3,9 C 92 % 1025,5 hPa 0,0 l/m 0 min 0 min 0 W/m 3,2 km/h (1 Bft) 100,00 %
05.02.2019 18:52 4,7 C 4,4 C 3,9 C 92 % 1025,5 hPa 0,0 l/m 0 min 0 min 0 W/m 3,2 km/h (1 Bft) 100,00 %
05.02.2019 18:54 4,7 C 4,4 C 3,9 C 92 % 1025,4 hPa 0,0 l/m 0 min 0 min 0 W/m 3,2 km/h (1 Bft) 100,00 %
05.02.2019 18:56 4,7 C 4,4 C 3,9 C 92 % 1025,4 hPa 0,0 l/m 0 min 0 min 0 W/m 6,4 km/h (2 Bft) 97,87 %
05.02.2019 18:58 4,7 C 4,4 C 3,9 C 92 % 1025,4 hPa 0,0 l/m 0 min 0 min 0 W/m 3,2 km/h (1 Bft) 100,00 %
05.02.2019 19:00 4,7 C 4,4 C 3,9 C 92 % 1025,3 hPa 0,0 l/m 0 min 0 min 0 W/m 3,2 km/h (1 Bft) 95,74 %
05.02.2019 19:02 4,7 C 4,4 C 3,9 C 92 % 1025,4 hPa 0,0 l/m 0 min 0 min 0 W/m 3,2 km/h (1 Bft) 100,00 %
05.02.2019 19:04 4,7 C 4,4 C 3,9 C 92 % 1025,4 hPa 0,0 l/m 0 min 0 min 0 W/m 3,2 km/h (1 Bft) 97,87 %
05.02.2019 19:06 4,7 C 4,4 C 3,9 C 92 % 1025,4 hPa 0,0 l/m 0 min 0 min 0 W/m 0,0 km/h (0 Bft) 93,62 %
05.02.2019 19:08 4,7 C 4,4 C 3,9 C 92 % 1025,3 hPa 0,0 l/m 0 min 0 min 0 W/m 0,0 km/h (0 Bft) 97,87 %
05.02.2019 19:10 4,7 C 4,4 C 3,9 C 92 % 1025,3 hPa 0,0 l/m 0 min 0 min 0 W/m 3,2 km/h (1 Bft) 97,87 %
05.02.2019 19:12 4,7 C 4,4 C 3,9 C 92 % 1025,4 hPa 0,0 l/m 0 min 0 min 0 W/m 6,4 km/h (2 Bft) 100,00 %
05.02.2019 19:14 4,7 C 4,4 C 3,9 C 92 % 1025,4 hPa 0,0 l/m 0 min 0 min 0 W/m 6,4 km/h (2 Bft) 100,00 %
05.02.2019 19:16 4,7 C 4,4 C 3,9 C 92 % 1025,3 hPa 0,0 l/m 0 min 0 min 0 W/m 3,2 km/h (1 Bft) 100,00 %
05.02.2019 19:18 4,7 C 4,4 C 3,9 C 92 % 1025,3 hPa 0,0 l/m 0 min 0 min 0 W/m 0,0 km/h (0 Bft) 95,74 %
05.02.2019 19:20 4,7 C 4,4 C 3,9 C 92 % 1025,3 hPa 0,0 l/m 0 min 0 min 0 W/m 0,0 km/h (0 Bft) 97,87 %
05.02.2019 19:22 4,7 C 4,4 C 3,9 C 92 % 1025,3 hPa 0,0 l/m 0 min 0 min 0 W/m 0,0 km/h (0 Bft) 95,74 %
05.02.2019 19:24 4,7 C 4,4 C 3,9 C 92 % 1025,2 hPa 0,0 l/m 0 min 0 min 0 W/m 0,0 km/h (0 Bft) 97,83 %
05.02.2019 19:26 4,7 C 4,4 C 3,9 C 92 % 1025,3 hPa 0,0 l/m 0 min 0 min 0 W/m 0,0 km/h (0 Bft) 97,87 %
05.02.2019 19:28 4,7 C 4,4 C 3,9 C 92 % 1025,3 hPa 0,0 l/m 0 min 0 min 0 W/m 3,2 km/h (1 Bft) 95,74 %
05.02.2019 19:30 4,7 C 4,4 C 3,9 C 92 % 1025,3 hPa 0,0 l/m 0 min 0 min 0 W/m 0,0 km/h (0 Bft) 95,74 %
05.02.2019 19:32 4,7 C 4,4 C 3,9 C 92 % 1025,2 hPa 0,0 l/m 0 min 0 min 0 W/m 3,2 km/h (1 Bft) 93,62 %
05.02.2019 19:34 4,7 C 4,4 C 3,9 C 93 % 1025,2 hPa 0,0 l/m 0 min 0 min 0 W/m 3,2 km/h (1 Bft) 95,74 %
05.02.2019 19:36 4,7 C 4,4 C 3,9 C 93 % 1025,2 hPa 0,0 l/m 0 min 0 min 0 W/m 3,2 km/h (1 Bft) 95,65 %
05.02.2019 19:38 4,7 C 4,4 C 3,9 C 93 % 1025,1 hPa 0,0 l/m 0 min 0 min 0 W/m 6,4 km/h (2 Bft) 93,62 %
05.02.2019 19:40 4,7 C 4,4 C 3,9 C 93 % 1025,2 hPa 0,0 l/m 0 min 0 min 0 W/m 6,4 km/h (2 Bft) 95,74 %
05.02.2019 19:42 4,7 C 4,4 C 3,3 C 93 % 1025,1 hPa 0,0 l/m 0 min 0 min 0 W/m 6,4 km/h (2 Bft) 97,14 %
05.02.2019 19:44 4,7 C 4,4 C 3,3 C 93 % 1025,1 hPa 0,0 l/m 0 min 0 min 0 W/m 9,7 km/h (2 Bft) 94,92 %
05.02.2019 19:46 4,7 C 3,9 C 3,3 C 93 % 1025,1 hPa 0,0 l/m 0 min 0 min 0 W/m 9,7 km/h (2 Bft) 95,74 %
05.02.2019 19:48 4,7 C 3,9 C 3,3 C 93 % 1025,1 hPa 0,0 l/m 0 min 0 min 0 W/m 12,9 km/h (3 Bft) 94,29 %
05.02.2019 19:50 4,7 C 3,9 C 3,3 C 93 % 1025,1 hPa 0,0 l/m 0 min 0 min 0 W/m 9,7 km/h (2 Bft) 96,55 %
05.02.2019 19:52 4,7 C 3,9 C 3,3 C 93 % 1025,0 hPa 0,0 l/m 0 min 0 min 0 W/m 6,4 km/h (2 Bft) 93,62 %
05.02.2019 19:54 4,7 C 3,9 C 3,3 C 93 % 1025,0 hPa 0,0 l/m 0 min 0 min 0 W/m 6,4 km/h (2 Bft) 93,62 %
05.02.2019 19:56 4,7 C 3,9 C 3,3 C 93 % 1025,1 hPa 0,0 l/m 0 min 0 min 0 W/m 9,7 km/h (2 Bft) 91,49 %
05.02.2019 19:58 4,7 C 3,9 C 2,8 C 93 % 1025,1 hPa 0,0 l/m 0 min 0 min 0 W/m 12,9 km/h (3 Bft) 95,74 %
05.02.2019 20:00 4,6 C 3,3 C 2,8 C 93 % 1025,1 hPa 0,0 l/m 0 min 0 min 0 W/m 12,9 km/h (3 Bft) 91,30 %
05.02.2019 20:02 4,6 C 3,3 C 2,8 C 93 % 1025,0 hPa 0,0 l/m 0 min 0 min 0 W/m 6,4 km/h (2 Bft) 89,36 %
05.02.2019 20:04 4,6 C 3,3 C 2,8 C 93 % 1025,0 hPa 0,0 l/m 0 min 0 min 0 W/m 6,4 km/h (2 Bft) 95,74 %
05.02.2019 20:06 4,5 C 3,3 C 2,8 C 93 % 1025,0 hPa 0,0 l/m 0 min 0 min 0 W/m 9,7 km/h (2 Bft) 93,62 %
05.02.2019 20:08 4,4 C 3,3 C 2,8 C 93 % 1025,0 hPa 0,0 l/m 0 min 0 min 0 W/m 9,7 km/h (2 Bft) 95,74 %
05.02.2019 20:10 4,4 C 3,3 C 2,8 C 93 % 1025,0 hPa 0,0 l/m 0 min 0 min 0 W/m 12,9 km/h (3 Bft) 95,74 %
05.02.2019 20:12 4,3 C 3,3 C 2,8 C 93 % 1025,0 hPa 0,0 l/m 0 min 0 min 0 W/m 6,4 km/h (2 Bft) 95,65 %
05.02.2019 20:14 4,3 C 3,3 C 2,2 C 93 % 1024,9 hPa 0,0 l/m 0 min 0 min 0 W/m 9,7 km/h (2 Bft) 97,87 %
05.02.2019 20:16 4,3 C 3,3 C 2,2 C 93 % 1024,8 hPa 0,0 l/m 0 min 0 min 0 W/m 6,4 km/h (2 Bft) 97,87 %
05.02.2019 20:18 4,2 C 2,8 C 2,2 C 93 % 1024,8 hPa 0,0 l/m 0 min 0 min 0 W/m 12,9 km/h (3 Bft) 97,87 %
05.02.2019 20:20 4,2 C 2,8 C 2,2 C 93 % 1024,8 hPa 0,0 l/m 0 min 0 min 0 W/m 6,4 km/h (2 Bft) 97,87 %
05.02.2019 20:22 4,1 C 2,8 C 2,2 C 93 % 1024,8 hPa 0,0 l/m 0 min 0 min 0 W/m 9,7 km/h (2 Bft) 95,65 %
05.02.2019 20:24 4,1 C 2,8 C 2,2 C 93 % 1024,8 hPa 0,0 l/m 0 min 0 min 0 W/m 9,7 km/h (2 Bft) 97,87 %
05.02.2019 20:26 4,0 C 2,8 C 2,2 C 93 % 1024,8 hPa 0,0 l/m 0 min 0 min 0 W/m 9,7 km/h (2 Bft) 95,74 %
05.02.2019 20:28 3,9 C 2,8 C 2,2 C 93 % 1024,8 hPa 0,0 l/m 0 min 0 min 0 W/m 6,4 km/h (2 Bft) 93,62 %
05.02.2019 20:30 3,9 C 2,8 C 2,2 C 93 % 1024,8 hPa 0,0 l/m 0 min 0 min 0 W/m 9,7 km/h (2 Bft) 93,62 %
05.02.2019 20:32 3,9 C 2,8 C 2,2 C 93 % 1024,8 hPa 0,0 l/m 0 min 0 min 0 W/m 6,4 km/h (2 Bft) 97,87 %
05.02.2019 20:34 3,8 C 2,8 C 2,2 C 93 % 1024,8 hPa 0,0 l/m 0 min 0 min 0 W/m 9,7 km/h (2 Bft) 97,83 %
05.02.2019 20:36 3,8 C 2,8 C 2,2 C 93 % 1024,7 hPa 0,0 l/m 0 min 0 min 0 W/m 9,7 km/h (2 Bft) 97,87 %
05.02.2019 20:38 3,8 C 2,8 C 2,2 C 93 % 1024,7 hPa 0,0 l/m 0 min 0 min 0 W/m 9,7 km/h (2 Bft) 97,87 %
05.02.2019 20:40 3,7 C 2,8 C 2,2 C 93 % 1024,8 hPa 0,0 l/m 0 min 0 min 0 W/m 9,7 km/h (2 Bft) 97,87 %
05.02.2019 20:42 3,7 C 2,8 C 2,2 C 93 % 1024,7 hPa 0,0 l/m 0 min 0 min 0 W/m 6,4 km/h (2 Bft) 97,87 %
05.02.2019 20:44 3,7 C 2,8 C 2,2 C 93 % 1024,7 hPa 0,0 l/m 0 min 0 min 0 W/m 12,9 km/h (3 Bft) 97,87 %
05.02.2019 20:46 3,7 C 2,8 C 2,2 C 93 % 1024,8 hPa 0,0 l/m 0 min 0 min 0 W/m 9,7 km/h (2 Bft) 97,83 %
05.02.2019 20:48 3,7 C 3,3 C 2,2 C 93 % 1024,8 hPa 0,0 l/m 0 min 0 min 0 W/m 6,4 km/h (2 Bft) 97,87 %
05.02.2019 20:50 3,7 C 3,3 C 2,2 C 93 % 1024,9 hPa 0,0 l/m 0 min 0 min 0 W/m 9,7 km/h (2 Bft) 95,74 %
05.02.2019 20:52 3,7 C 3,3 C 2,2 C 93 % 1024,9 hPa 0,0 l/m 0 min 0 min 0 W/m 9,7 km/h (2 Bft) 95,74 %
05.02.2019 20:54 3,6 C 3,3 C 2,2 C 94 % 1024,9 hPa 0,0 l/m 0 min 0 min 0 W/m 12,9 km/h (3 Bft) 97,87 %
05.02.2019 20:56 3,7 C 3,3 C 2,2 C 94 % 1024,9 hPa 0,0 l/m 0 min 0 min 0 W/m 9,7 km/h (2 Bft) 100,00 %
05.02.2019 20:58 3,6 C 2,8 C 2,2 C 94 % 1024,9 hPa 0,0 l/m 0 min 0 min 0 W/m 12,9 km/h (3 Bft) 100,00 %
05.02.2019 21:00 3,6 C 2,8 C 2,2 C 94 % 1024,8 hPa 0,0 l/m 0 min 0 min 0 W/m 9,7 km/h (2 Bft) 100,00 %
05.02.2019 21:02 3,6 C 2,8 C 2,2 C 94 % 1024,9 hPa 0,0 l/m 0 min 0 min 0 W/m 9,7 km/h (2 Bft) 97,87 %
05.02.2019 21:04 3,6 C 2,8 C 2,2 C 94 % 1024,8 hPa 0,0 l/m 0 min 0 min 0 W/m 6,4 km/h (2 Bft) 100,00 %
05.02.2019 21:06 3,6 C 2,8 C 2,2 C 94 % 1024,8 hPa 0,0 l/m 0 min 0 min 0 W/m 9,7 km/h (2 Bft) 100,00 %
05.02.2019 21:08 3,6 C 2,8 C 2,2 C 94 % 1024,8 hPa 0,0 l/m 0 min 0 min 0 W/m 9,7 km/h (2 Bft) 97,87 %
05.02.2019 21:10 3,6 C 2,8 C 2,2 C 94 % 1024,8 hPa 0,0 l/m 0 min 0 min 0 W/m 12,9 km/h (3 Bft) 100,00 %
05.02.2019 21:12 3,6 C 2,8 C 2,2 C 94 % 1024,8 hPa 0,0 l/m 0 min 0 min 0 W/m 12,9 km/h (3 Bft) 96,55 %
05.02.2019 21:14 3,5 C 2,8 C 2,2 C 94 % 1024,8 hPa 0,0 l/m 0 min 0 min 0 W/m 9,7 km/h (2 Bft) 97,87 %
05.02.2019 21:16 3,5 C 2,8 C 2,2 C 94 % 1024,8 hPa 0,0 l/m 0 min 0 min 0 W/m 6,4 km/h (2 Bft) 97,87 %
05.02.2019 21:18 3,5 C 2,8 C 2,2 C 94 % 1024,8 hPa 0,0 l/m 0 min 0 min 0 W/m 12,9 km/h (3 Bft) 100,00 %
05.02.2019 21:20 3,4 C 2,8 C 2,2 C 94 % 1024,8 hPa 0,0 l/m 0 min 0 min 0 W/m 9,7 km/h (2 Bft) 100,00 %
05.02.2019 21:22 3,4 C 2,8 C 1,7 C 94 % 1024,7 hPa 0,0 l/m 0 min 0 min 0 W/m 9,7 km/h (2 Bft) 100,00 %
05.02.2019 21:24 3,4 C 2,8 C 2,2 C 94 % 1024,7 hPa 0,0 l/m 0 min 0 min 0 W/m 12,9 km/h (3 Bft) 100,00 %
05.02.2019 21:26 3,4 C 2,8 C 1,7 C 94 % 1024,7 hPa 0,0 l/m 0 min 0 min 0 W/m 9,7 km/h (2 Bft) 100,00 %
05.02.2019 21:28 3,4 C 2,2 C 1,7 C 94 % 1024,7 hPa 0,0 l/m 0 min 0 min 0 W/m 9,7 km/h (2 Bft) 100,00 %
05.02.2019 21:30 3,3 C 2,2 C 1,7 C 94 % 1024,7 hPa 0,0 l/m 0 min 0 min 0 W/m 6,4 km/h (2 Bft) 100,00 %
05.02.2019 21:32 3,3 C 2,2 C 1,7 C 94 % 1024,8 hPa 0,0 l/m 0 min 0 min 0 W/m 3,2 km/h (1 Bft) 100,00 %
05.02.2019 21:34 3,3 C 2,2 C 1,7 C 94 % 1024,8 hPa 0,0 l/m 0 min 0 min 0 W/m 6,4 km/h (2 Bft) 100,00 %
05.02.2019 21:36 3,3 C 2,2 C 1,7 C 94 % 1024,8 hPa 0,0 l/m 0 min 0 min 0 W/m 6,4 km/h (2 Bft) 100,00 %
05.02.2019 21:38 3,3 C 2,2 C 1,7 C 94 % 1024,8 hPa 0,0 l/m 0 min 0 min 0 W/m 9,7 km/h (2 Bft) 95,74 %
05.02.2019 21:40 3,2 C 2,2 C 1,7 C 94 % 1024,9 hPa 0,0 l/m 0 min 0 min 0 W/m 3,2 km/h (1 Bft) 95,74 %
05.02.2019 21:42 3,2 C 2,2 C 1,7 C 94 % 1024,9 hPa 0,0 l/m 0 min 0 min 0 W/m 3,2 km/h (1 Bft) 100,00 %
05.02.2019 21:44 3,2 C 2,2 C 1,1 C 94 % 1024,9 hPa 0,0 l/m 0 min 0 min 0 W/m 3,2 km/h (1 Bft) 97,83 %
05.02.2019 21:46 3,1 C 2,2 C 1,1 C 94 % 1024,9 hPa 0,0 l/m 0 min 0 min 0 W/m 6,4 km/h (2 Bft) 97,87 %
05.02.2019 21:48 3,1 C 2,2 C 1,1 C 94 % 1025,0 hPa 0,0 l/m 0 min 0 min 0 W/m 3,2 km/h (1 Bft) 100,00 %
05.02.2019 21:50 3,1 C 2,2 C 1,1 C 94 % 1024,9 hPa 0,0 l/m 0 min 0 min 0 W/m 0,0 km/h (0 Bft) 100,00 %
05.02.2019 21:52 3,1 C 1,7 C 1,1 C 94 % 1024,9 hPa 0,0 l/m 0 min 0 min 0 W/m 3,2 km/h (1 Bft) 100,00 %
05.02.2019 21:54 3,1 C 1,7 C 1,1 C 94 % 1024,9 hPa 0,0 l/m 0 min 0 min 0 W/m 0,0 km/h (0 Bft) 97,87 %
05.02.2019 21:56 3,0 C 1,7 C 1,1 C 94 % 1024,9 hPa 0,0 l/m 0 min 0 min 0 W/m 0,0 km/h (0 Bft) 97,83 %
05.02.2019 21:58 3,0 C 1,7 C 0,6 C 94 % 1024,9 hPa 0,0 l/m 0 min 0 min 0 W/m 3,2 km/h (1 Bft) 100,00 %
05.02.2019 22:00 2,9 C 1,7 C 0,6 C 94 % 1024,9 hPa 0,0 l/m 0 min 0 min 0 W/m 0,0 km/h (0 Bft) 97,87 %
05.02.2019 22:02 2,9 C 1,7 C 0,6 C 94 % 1024,9 hPa 0,0 l/m 0 min 0 min 0 W/m 0,0 km/h (0 Bft) 97,87 %
05.02.2019 22:04 2,9 C 1,7 C 0,6 C 94 % 1025,0 hPa 0,0 l/m 0 min 0 min 0 W/m 3,2 km/h (1 Bft) 95,74 %
05.02.2019 22:06 2,8 C 1,7 C 0,6 C 94 % 1024,9 hPa 0,0 l/m 0 min 0 min 0 W/m 3,2 km/h (1 Bft) 97,83 %
05.02.2019 22:08 2,8 C 1,7 C 0,0 C 94 % 1024,9 hPa 0,0 l/m 0 min 0 min 0 W/m 0,0 km/h (0 Bft) 97,87 %
05.02.2019 22:10 2,8 C 1,7 C 0,0 C 94 % 1024,9 hPa 0,0 l/m 0 min 0 min 0 W/m 0,0 km/h (0 Bft) 97,14 %
05.02.2019 22:12 2,7 C 1,7 C 0,6 C 94 % 1025,0 hPa 0,0 l/m 0 min 0 min 0 W/m 6,4 km/h (2 Bft) 96,61 %
05.02.2019 22:14 2,7 C 1,7 C 0,6 C 94 % 1024,9 hPa 0,0 l/m 0 min 0 min 0 W/m 6,4 km/h (2 Bft) 91,49 %
05.02.2019 22:16 2,7 C 1,7 C 0,6 C 94 % 1024,9 hPa 0,0 l/m 0 min 0 min 0 W/m 3,2 km/h (1 Bft) 93,62 %
05.02.2019 22:18 2,7 C 1,7 C 0,6 C 94 % 1024,9 hPa 0,0 l/m 0 min 0 min 0 W/m 6,4 km/h (2 Bft) 93,48 %
05.02.2019 22:20 2,6 C 1,7 C 1,1 C 94 % 1024,9 hPa 0,0 l/m 0 min 0 min 0 W/m 3,2 km/h (1 Bft) 95,74 %
05.02.2019 22:22 2,6 C 1,7 C 1,1 C 94 % 1024,9 hPa 0,0 l/m 0 min 0 min 0 W/m 3,2 km/h (1 Bft) 95,74 %
05.02.2019 22:24 2,6 C 1,7 C 1,1 C 94 % 1024,9 hPa 0,0 l/m 0 min 0 min 0 W/m 3,2 km/h (1 Bft) 95,74 %
05.02.2019 22:26 2,6 C 1,7 C 1,1 C 94 % 1025,0 hPa 0,0 l/m 0 min 0 min 0 W/m 3,2 km/h (1 Bft) 95,74 %
05.02.2019 22:28 2,6 C 1,7 C 1,1 C 94 % 1025,0 hPa 0,0 l/m 0 min 0 min 0 W/m 3,2 km/h (1 Bft) 95,74 %
05.02.2019 22:30 2,5 C 1,7 C 1,1 C 94 % 1024,9 hPa 0,0 l/m 0 min 0 min 0 W/m 0,0 km/h (0 Bft) 95,65 %
05.02.2019 22:32 2,5 C 1,7 C 1,1 C 94 % 1024,9 hPa 0,0 l/m 0 min 0 min 0 W/m 3,2 km/h (1 Bft) 93,62 %
05.02.2019 22:34 2,5 C 1,7 C 1,1 C 94 % 1025,0 hPa 0,0 l/m 0 min 0 min 0 W/m 3,2 km/h (1 Bft) 95,74 %
05.02.2019 22:36 2,5 C 1,7 C 1,1 C 94 % 1024,9 hPa 0,0 l/m 0 min 0 min 0 W/m 3,2 km/h (1 Bft) 95,74 %
05.02.2019 22:38 2,4 C 1,7 C 1,1 C 94 % 1024,9 hPa 0,0 l/m 0 min 0 min 0 W/m 6,4 km/h (2 Bft) 93,62 %
05.02.2019 22:40 2,4 C 1,7 C 1,1 C 94 % 1024,9 hPa 0,0 l/m 0 min 0 min 0 W/m 3,2 km/h (1 Bft) 93,62 %
05.02.2019 22:42 2,4 C 1,7 C 1,1 C 94 % 1024,9 hPa 0,0 l/m 0 min 0 min 0 W/m 0,0 km/h (0 Bft) 95,65 %
05.02.2019 22:44 2,4 C 1,7 C 1,1 C 94 % 1024,9 hPa 0,0 l/m 0 min 0 min 0 W/m 6,4 km/h (2 Bft) 97,87 %
05.02.2019 22:46 2,4 C 1,7 C 1,1 C 94 % 1024,8 hPa 0,0 l/m 0 min 0 min 0 W/m 6,4 km/h (2 Bft) 95,74 %
05.02.2019 22:48 2,4 C 1,7 C 1,1 C 94 % 1024,8 hPa 0,0 l/m 0 min 0 min 0 W/m 6,4 km/h (2 Bft) 97,87 %
05.02.2019 22:50 2,4 C 1,7 C 1,1 C 94 % 1024,8 hPa 0,0 l/m 0 min 0 min 0 W/m 3,2 km/h (1 Bft) 95,74 %
05.02.2019 22:52 2,4 C 1,7 C 1,1 C 94 % 1024,8 hPa 0,0 l/m 0 min 0 min 0 W/m 3,2 km/h (1 Bft) 97,87 %
05.02.2019 22:54 2,4 C 1,7 C 1,1 C 94 % 1024,8 hPa 0,0 l/m 0 min 0 min 0 W/m 6,4 km/h (2 Bft) 97,83 %
05.02.2019 22:56 2,4 C 1,7 C 1,1 C 94 % 1024,8 hPa 0,0 l/m 0 min 0 min 0 W/m 3,2 km/h (1 Bft) 97,87 %
05.02.2019 22:58 2,4 C 1,7 C 1,1 C 95 % 1024,8 hPa 0,0 l/m 0 min 0 min 0 W/m 6,4 km/h (2 Bft) 100,00 %
05.02.2019 23:00 2,4 C 1,7 C 1,1 C 95 % 1024,8 hPa 0,0 l/m 0 min 0 min 0 W/m 3,2 km/h (1 Bft) 97,87 %
05.02.2019 23:02 2,3 C 1,7 C 1,1 C 95 % 1024,8 hPa 0,0 l/m 0 min 0 min 0 W/m 3,2 km/h (1 Bft) 100,00 %
05.02.2019 23:04 2,3 C 1,7 C 0,6 C 95 % 1024,8 hPa 0,0 l/m 0 min 0 min 0 W/m 0,0 km/h (0 Bft) 100,00 %
05.02.2019 23:06 2,3 C 1,7 C 0,6 C 95 % 1024,8 hPa 0,0 l/m 0 min 0 min 0 W/m 3,2 km/h (1 Bft) 97,83 %
05.02.2019 23:08 2,3 C 1,7 C 1,1 C 95 % 1024,8 hPa 0,0 l/m 0 min 0 min 0 W/m 3,2 km/h (1 Bft) 100,00 %
05.02.2019 23:10 2,3 C 1,7 C 0,6 C 95 % 1024,8 hPa 0,0 l/m 0 min 0 min 0 W/m 3,2 km/h (1 Bft) 100,00 %
05.02.2019 23:12 2,3 C 1,7 C 0,6 C 95 % 1024,7 hPa 0,0 l/m 0 min 0 min 0 W/m 0,0 km/h (0 Bft) 100,00 %
05.02.2019 23:14 2,3 C 1,7 C 0,6 C 95 % 1024,7 hPa 0,0 l/m 0 min 0 min 0 W/m 0,0 km/h (0 Bft) 100,00 %
05.02.2019 23:16 2,2 C 1,7 C 0,6 C 95 % 1024,7 hPa 0,0 l/m 0 min 0 min 0 W/m 0,0 km/h (0 Bft) 100,00 %
05.02.2019 23:18 2,2 C 1,7 C 0,6 C 95 % 1024,7 hPa 0,0 l/m 0 min 0 min 0 W/m 3,2 km/h (1 Bft) 100,00 %
05.02.2019 23:20 2,2 C 1,7 C 0,6 C 95 % 1024,6 hPa 0,0 l/m 0 min 0 min 0 W/m 0,0 km/h (0 Bft) 100,00 %
05.02.2019 23:22 2,2 C 1,1 C 0,6 C 95 % 1024,6 hPa 0,0 l/m 0 min 0 min 0 W/m 0,0 km/h (0 Bft) 100,00 %
05.02.2019 23:24 2,2 C 1,1 C 0,6 C 95 % 1024,7 hPa 0,0 l/m 0 min 0 min 0 W/m 0,0 km/h (0 Bft) 100,00 %
05.02.2019 23:26 2,1 C 1,1 C 0,0 C 95 % 1024,7 hPa 0,0 l/m 0 min 0 min 0 W/m 0,0 km/h (0 Bft) 100,00 %
05.02.2019 23:28 2,1 C 1,1 C 0,0 C 95 % 1024,7 hPa 0,0 l/m 0 min 0 min 0 W/m 0,0 km/h (0 Bft) 100,00 %
05.02.2019 23:30 2,1 C 1,1 C 0,0 C 95 % 1024,7 hPa 0,0 l/m 0 min 0 min 0 W/m 0,0 km/h (0 Bft) 97,87 %
05.02.2019 23:32 2,1 C 1,1 C 0,0 C 95 % 1024,7 hPa 0,0 l/m 0 min 0 min 0 W/m 0,0 km/h (0 Bft) 100,00 %
05.02.2019 23:34 2,1 C 1,1 C -0,6 C 95 % 1024,7 hPa 0,0 l/m 0 min 0 min 0 W/m 0,0 km/h (0 Bft) 95,74 %
05.02.2019 23:36 2,0 C 1,1 C -0,6 C 95 % 1024,6 hPa 0,0 l/m 0 min 0 min 0 W/m 0,0 km/h (0 Bft) 93,62 %
05.02.2019 23:38 2,0 C 1,1 C -0,6 C 95 % 1024,6 hPa 0,0 l/m 0 min 0 min 0 W/m 0,0 km/h (0 Bft) 97,87 %
05.02.2019 23:40 1,9 C 1,1 C -0,6 C 95 % 1024,6 hPa 0,0 l/m 0 min 0 min 0 W/m 0,0 km/h (0 Bft) 97,87 %
05.02.2019 23:42 1,9 C 1,1 C -0,6 C 95 % 1024,7 hPa 0,0 l/m 0 min 0 min 0 W/m 0,0 km/h (0 Bft) 97,83 %
05.02.2019 23:44 1,9 C 1,1 C -0,6 C 95 % 1024,6 hPa 0,0 l/m 0 min 0 min 0 W/m 0,0 km/h (0 Bft) 97,87 %
05.02.2019 23:46 1,9 C 1,1 C -0,6 C 95 % 1024,6 hPa 0,0 l/m 0 min 0 min 0 W/m 0,0 km/h (0 Bft) 97,87 %
05.02.2019 23:48 1,9 C 1,1 C -0,6 C 95 % 1024,6 hPa 0,0 l/m 0 min 0 min 0 W/m 0,0 km/h (0 Bft) 95,74 %
05.02.2019 23:50 1,8 C 1,1 C 0,0 C 95 % 1024,6 hPa 0,0 l/m 0 min 0 min 0 W/m 0,0 km/h (0 Bft) 97,87 %
05.02.2019 23:52 1,8 C 1,1 C 0,0 C 95 % 1024,6 hPa 0,0 l/m 0 min 0 min 0 W/m 0,0 km/h (0 Bft) 97,83 %
05.02.2019 23:54 1,8 C 1,1 C 0,0 C 95 % 1024,6 hPa 0,0 l/m 0 min 0 min 0 W/m 0,0 km/h (0 Bft) 97,87 %
05.02.2019 23:56 1,8 C 1,1 C 0,0 C 95 % 1024,6 hPa 0,0 l/m 0 min 0 min 0 W/m 3,2 km/h (1 Bft) 97,87 %
05.02.2019 23:58 1,8 C 1,1 C 0,0 C 95 % 1024,7 hPa 0,0 l/m 0 min 0 min 0 W/m 3,2 km/h (1 Bft) 97,87 %
_ Min-Zeit 23:50 00:00 23:34 00:00 00:10 - - - - 03:46 16:30
Minimum _ 1,8 C 1,1 C -0,6 C 88 % 1022,7 hPa - - - - 0,0 km/h (0 Bft) 50,00 %
_ Max-Zeit 15:58 15:54 14:38 10:24 11:22 01:14 15:48 00:00 14:48 00:00 00:24
Maximum _ 5,6 C 6,1 C 5,0 C 96 % 1026,1 hPa 0,2 l/m 2 min 2 min 120 W/m 25,7 km/h
SO (4 Bft)
100,00 %
Durchschnitt _ 3,5 C 3,0 C 2,3 C 93 % 1024,7 hPa #0,6 l/m #22 min. #1:06 h 63 W/m 6,8 km/h (2 Bft) 97,44 %
© 2019 W. Hausmann